[{"header": {"dx": 0.06612293990616946, "dy": 0.0552356325346848, "nx": 98, "ny": 59, "la1": 35.046912555036876, "la2": 31.78801023549047, "lo1": -121.43107172385933, "lo2": -114.95102361305473, "refTime": "2026041212", "parameterCategory": 1, "parameterNumber": 2}, "data": [7.6, 7.6, 7.58, 7.13, 7.13, 6.68, 6.68, 6.68, 7.13, 7.58, 8.03, 7.97, 6.66, 3.97, 3.95, 4.41, 7.1, 6.71, 5.2, 3.79, 2.73, 2.2, 1.4, 1.4, 2.15, 2.79, 3.07, 2.3, 2.3, 1.49, 1.33, 1.33, 0.61, -0.0, -0.45, 0.0, 0.45, 0.89, 0.89, 0.6, 0.53, 0.61, 2.0, 3.48, 5.37, 6.0, 6.94, 7.47, 7.6, 7.6, 7.07, 5.72, 5.43, 5.77, 6.44, 7.07, 7.67, 8.24, 8.24, 8.55, 7.89, 4.8, 2.21, 1.4, 1.6, 3.79, 5.09, 6.94, 7.47, 7.98, 8.19, 7.89, 8.01, 8.01, 7.56, 6.66, 2.17, -0.63, -1.79, -2.6, -2.6, -2.8, -2.8, -3.2, -3.22, -3.49, -2.15, -1.2, 0.0, 2.15, 3.72, 4.74, 5.06, 5.43, 2.86, 0.63, 0.0, -0.0, 8.05, 7.6, 7.58, 7.58, 7.13, 6.68, 6.68, 6.68, 7.13, 7.58, 8.03, 7.11, 5.31, 3.58, 6.17, 7.06, 6.66, 6.71, 4.8, 2.53, 1.3, 1.14, 2.16, 2.0, 1.84, 2.41, 2.41, 1.4, 1.16, 0.66, 0.7, 1.35, 1.41, 0.54, -0.45, -0.45, 0.0, 0.89, 0.89, 1.26, 0.61, 1.08, 3.16, 3.84, 5.75, 7.21, 7.47, 7.47, 7.47, 6.94, 5.46, 4.46, 5.09, 5.72, 5.72, 6.44, 7.03, 8.0, 8.55, 8.55, 6.94, 2.84, 1.6, 1.49, 2.3, 4.19, 5.43, 6.28, 6.79, 7.28, 7.45, 6.66, 6.26, 6.71, 5.81, 5.31, 2.4, -0.63, -1.79, -2.6, -2.6, -2.8, -2.8, -3.2, -3.22, -3.49, -2.15, -1.2, 0.0, 2.15, 3.72, 4.74, 5.06, 5.43, 2.86, 0.63, 0.0, -0.0, 8.05, 7.6, 7.58, 7.58, 7.13, 6.68, 6.68, 6.68, 6.68, 7.58, 8.03, 8.03, 6.21, 4.92, 4.02, 4.85, 6.65, 6.21, 4.19, 2.4, 0.81, -0.0, 1.14, 2.49, 3.22, 3.35, 2.84, 1.88, -0.0, -0.0, -0.0, 0.79, 1.58, 1.99, 0.57, -0.0, 0.6, 1.2, 1.7, 1.2, 0.59, 2.07, 3.84, 5.75, 6.51, 6.98, 6.98, 6.51, 6.07, 4.93, 4.4, 4.46, 4.84, 5.82, 5.6, 6.0, 6.94, 7.2, 8.4, 7.89, 5.05, 2.07, 1.41, 2.2, 3.07, 4.46, 6.0, 6.94, 7.03, 7.03, 7.6, 6.79, 6.07, 4.92, 3.13, 2.68, 2.23, -0.63, -2.68, -3.13, -3.58, -3.13, -3.07, -3.04, -3.74, -4.0, -3.45, -1.2, 0.0, 2.73, 5.06, 4.65, 3.72, 2.21, 0.63, 0.0, 0.45, 0.89, 8.05, 8.05, 8.05, 7.58, 7.13, 6.68, 6.68, 6.68, 6.68, 7.58, 8.03, 8.41, 6.66, 4.47, 3.58, 4.47, 6.65, 5.75, 3.48, 1.55, 0.81, -0.0, -0.0, 1.55, 3.11, 4.43, 3.79, 2.53, -0.0, -1.2, -1.49, -0.78, 0.8, 3.3, 3.2, 2.23, 1.98, 2.21, 2.4, 0.76, 1.49, 2.79, 4.22, 5.59, 5.75, 5.75, 4.92, 4.41, 4.15, 3.74, 3.45, 4.4, 4.8, 5.43, 5.43, 6.4, 6.94, 7.47, 8.19, 6.79, 2.84, 0.66, 1.55, 3.07, 4.11, 5.43, 6.06, 6.98, 7.59, 8.22, 8.6, 7.64, 7.69, 5.86, 2.17, 0.45, -0.6, -1.26, -2.24, -3.58, -4.92, -4.02, -3.13, -3.13, -4.02, -3.58, -2.6, -0.65, 0.7, 3.64, 4.74, 2.53, 1.26, 0.0, 0.45, 0.45, 0.89, 1.2, 8.05, 8.05, 8.05, 7.58, 7.13, 6.68, 6.68, 6.68, 6.68, 7.58, 8.03, 8.47, 6.66, 4.92, 4.02, 4.92, 6.66, 5.31, 2.41, 0.73, -0.0, -0.0, -0.0, -0.0, 1.2, 2.95, 4.11, 3.16, 0.65, -0.65, -2.21, -1.88, -0.73, 2.35, 5.44, 5.69, 4.43, 5.37, 2.4, -0.0, 0.79, 2.98, 4.81, 5.05, 4.4, 3.32, 3.04, 2.6, 2.6, 3.2, 2.86, 4.22, 4.46, 5.05, 6.07, 7.03, 7.47, 7.71, 7.71, 4.93, 1.4, 0.66, 1.41, 2.98, 4.03, 5.28, 5.95, 6.45, 7.01, 8.56, 9.4, 9.17, 8.87, 7.97, 1.4, -3.07, -4.02, -2.68, -2.17, -3.13, -5.36, -4.47, -3.58, -3.58, -3.58, -2.63, -0.6, 0.65, 2.07, 3.72, 2.86, 1.6, 0.0, -0.32, 0.45, 0.45, 1.7, 1.49, 8.05, 7.6, 7.6, 7.58, 7.13, 6.68, 6.68, 6.68, 6.68, 7.58, 8.03, 8.47, 6.66, 5.36, 3.58, 4.02, 6.71, 5.29, 1.8, -0.0, -0.88, -0.88, -0.0, -0.0, 1.13, 3.49, 4.43, 3.76, 2.32, 1.14, -0.0, -1.86, -0.95, 1.9, 4.22, 4.81, 5.46, 6.8, 2.4, -0.71, -0.0, 1.99, 4.36, 5.37, 5.06, 4.43, 3.83, 2.4, 1.86, 2.8, 3.49, 4.46, 4.84, 5.43, 6.28, 7.71, 7.71, 7.45, 6.98, 4.15, 0.76, -0.0, 1.41, 2.9, 3.78, 5.4, 6.33, 6.09, 6.97, 8.01, 8.9, 9.0, 8.65, 8.94, 5.37, -1.26, -4.02, -3.13, -3.07, -3.13, -4.47, -4.47, -3.58, -3.13, -2.63, -1.26, 0.54, 1.88, 2.79, 2.84, 1.58, 0.89, 0.0, -0.89, -0.45, 0.95, 1.9, 1.58, 7.6, 7.6, 7.6, 7.6, 7.13, 6.68, 6.68, 6.68, 7.13, 7.58, 8.03, 8.03, 7.15, 4.92, 6.26, 3.13, 6.26, 5.29, 2.41, -0.0, -2.53, -3.6, -1.86, -0.85, 1.27, 3.48, 3.48, 2.4, 2.32, 3.47, 2.4, 0.85, -0.0, 1.9, 2.53, 2.3, 4.11, 6.7, 3.35, -0.0, -0.0, 1.19, 3.45, 5.03, 5.44, 6.06, 5.37, 3.79, 2.86, 4.65, 4.74, 4.22, 5.34, 6.07, 6.66, 7.15, 6.71, 6.26, 3.58, 1.86, -0.0, -0.0, 1.41, 2.18, 3.06, 5.41, 6.71, 6.95, 6.68, 7.69, 8.55, 7.89, 6.64, 7.71, 7.89, 2.91, -0.89, -3.07, -3.51, -3.13, -3.53, -3.39, -2.91, -2.4, -1.24, 0.0, 0.65, 1.88, 2.53, 1.2, 0.0, 0.0, -0.89, -1.34, 0.0, 1.58, 1.88, 1.2, 7.6, 7.6, 7.6, 7.6, 7.15, 7.13, 6.68, 6.68, 7.13, 7.58, 8.03, 8.03, 6.71, 5.81, 6.71, 3.51, 3.58, 4.92, 2.86, 0.85, -1.58, -3.04, -2.24, -1.79, 0.0, 3.13, 2.53, 1.19, 1.14, 3.76, 2.6, 1.3, 1.19, 2.73, 2.07, 1.6, 3.22, 5.75, 5.37, 1.74, -0.0, 1.13, 2.73, 4.43, 4.74, 6.01, 5.49, 5.49, 5.21, 5.44, 2.21, 3.07, 4.87, 5.81, 6.26, 6.21, 5.64, 3.07, 1.34, -0.0, -0.0, 0.7, 0.66, 1.63, 3.0, 4.56, 7.02, 7.03, 6.55, 7.15, 7.6, 6.71, 5.77, 6.21, 6.26, 5.81, 3.13, -0.0, -1.26, -1.34, -1.86, -2.68, -2.5, -1.9, -1.24, 0.0, 0.57, 1.26, 0.6, 0.0, -0.89, -0.8, -1.2, -1.34, 0.0, 1.88, 2.53, 1.2, 7.6, 7.6, 7.6, 7.58, 7.13, 7.13, 6.68, 6.68, 7.13, 7.51, 7.97, 7.97, 6.61, 6.65, 6.21, 3.58, 4.02, 4.92, 4.38, 2.6, -0.0, -1.9, -2.12, -1.79, 0.45, 2.24, 1.4, -0.0, 2.4, 3.49, 1.41, -0.0, 1.27, 2.23, 2.41, 2.6, 1.34, 1.79, 2.54, 2.21, 1.27, 1.27, 2.48, 3.79, 5.01, 3.2, 3.3, 5.92, 6.87, 6.79, 6.01, 2.86, 3.51, 4.47, 5.31, 4.93, 3.84, 1.9, 0.63, -0.0, 0.81, 1.55, 0.7, 1.6, 2.98, 4.46, 7.35, 7.92, 6.55, 6.94, 6.0, 5.6, 5.6, 5.6, 4.66, 4.24, 3.51, 2.68, 1.79, 0.89, 0.63, -2.15, -2.15, -1.86, -0.6, 0.0, 0.0, 0.0, 0.0, 0.0, 0.0, -0.42, -1.26, -0.63, 1.24, 2.53, 2.21, 0.71, 7.6, 7.58, 7.58, 7.13, 7.13, 7.13, 6.68, 6.61, 7.06, 7.51, 7.97, 7.97, 8.33, 8.3, 6.65, 5.31, 4.85, 4.85, 5.36, 3.72, 1.27, -0.0, -0.0, -1.26, 0.45, 1.9, 1.6, 1.13, 2.48, 3.79, 1.27, -0.0, 0.89, 0.45, 1.9, 3.82, 2.68, 1.26, 1.6, 1.41, 0.87, 1.8, 3.16, 4.22, 3.35, 2.51, 2.4, 4.83, 6.53, 6.88, 6.05, 5.38, 3.9, 2.84, 2.5, 2.8, 1.34, 0.0, 0.0, -0.0, 0.78, 2.34, 2.23, 3.09, 3.79, 4.81, 6.54, 7.28, 4.3, 3.9, 3.64, 4.07, 5.36, 4.73, 3.49, 2.15, 1.86, 1.86, 1.7, 1.7, 1.79, 2.68, 0.0, 0.45, 0.89, 1.2, 1.6, 1.2, 0.89, 0.0, 0.0, -0.0, -0.6, 0.0, 1.26, 2.5, 1.9, 0.57, 7.6, 7.58, 7.58, 7.13, 7.13, 7.13, 6.61, 6.61, 7.06, 7.51, 7.97, 8.42, 8.77, 8.77, 7.42, 6.07, 6.02, 6.94, 6.68, 4.6, 1.98, 0.85, 1.0, -0.0, 1.34, 0.45, 1.26, 1.2, 2.53, 3.72, 1.4, -0.0, 0.45, 0.45, 0.89, 3.2, 2.23, -0.0, 0.98, 1.66, 1.6, 1.98, 2.53, 2.48, 1.41, 1.47, 2.3, 3.07, 3.79, 4.03, 4.58, 4.61, 3.78, 3.14, 2.37, 2.22, 3.19, 0.57, -0.89, -0.78, 0.75, 2.31, 3.07, 3.78, 4.6, 5.09, 5.41, 4.71, 2.07, 1.2, 1.24, 2.07, 3.38, 2.48, 1.61, 0.8, 0.0, 0.0, 0.0, 0.4, 1.34, 2.4, 3.45, 3.07, 3.32, 3.32, 2.91, 2.63, 1.34, 0.0, 0.0, 0.45, -0.0, 0.0, 1.34, 2.17, 1.86, 0.0, 7.58, 7.58, 7.13, 7.13, 7.13, 7.06, 6.61, 6.61, 7.06, 7.51, 7.97, 8.42, 8.77, 9.23, 9.23, 9.11, 8.77, 8.21, 7.4, 4.92, 2.4, 1.26, 1.6, 2.24, 1.79, 1.79, 2.24, 2.17, 1.79, 3.58, 2.8, 0.95, 0.45, 0.89, 0.89, 1.26, 1.4, 0.87, 1.98, 2.41, 1.8, 1.6, 1.26, 1.41, -0.0, 0.79, 1.14, 2.2, 1.05, 1.07, 1.48, 2.33, 2.37, 1.53, 1.56, 2.32, 5.46, 6.9, 2.4, -0.0, -0.0, 2.31, 2.95, 3.02, 2.25, 2.32, 3.04, 3.83, 3.87, 4.58, 4.07, 2.84, 1.79, 0.54, 0.0, 0.0, -0.63, -0.6, 0.0, 0.0, 0.0, 1.58, 3.83, 4.4, 4.66, 4.66, 4.52, 3.53, 2.24, 0.0, -0.89, -0.45, -0.45, 0.0, 0.89, 1.34, 0.0, -0.6, 7.58, 7.58, 7.13, 7.13, 7.06, 7.06, 6.61, 6.61, 7.06, 7.51, 7.97, 8.3, 8.77, 9.23, 9.68, 9.68, 9.68, 9.11, 8.64, 6.68, 3.98, 2.12, 2.24, 2.24, 1.79, 2.24, 2.68, 3.13, 4.02, 4.47, 4.47, 3.13, 2.24, 1.79, 0.95, -0.0, 0.8, 1.2, 0.85, 1.6, 1.8, 1.49, 0.79, -0.0, -0.0, -0.0, -0.0, -0.0, -0.0, -0.0, 0.74, -0.0, -0.0, -0.0, -0.0, 1.11, 3.47, 8.68, 6.2, -0.0, -0.0, 3.11, 2.28, 0.76, -0.0, -0.0, 0.73, 2.34, 3.98, 7.08, 8.86, 9.22, 6.95, 2.5, 0.63, 0.0, 0.0, 0.45, 0.45, -0.95, -1.6, 0.89, 3.53, 5.31, 5.43, 6.07, 6.54, 5.64, 3.07, 1.79, 0.0, -0.89, -0.45, 0.0, 0.0, 0.0, -1.26, -1.86, 7.58, 7.13, 7.13, 7.06, 7.06, 7.06, 6.61, 6.6, 6.61, 7.07, 7.87, 8.3, 8.77, 9.23, 9.24, 9.68, 9.24, 9.23, 9.11, 7.97, 5.36, 3.07, 2.68, 2.68, 2.68, 2.24, 2.68, 3.58, 4.47, 4.92, 5.36, 4.92, 4.02, 2.0, 1.26, 0.95, 0.8, 1.0, 0.85, 0.99, 0.87, -0.0, -0.0, -0.0, -0.0, -0.0, -0.0, -0.0, -0.0, -0.0, -0.0, -0.0, -1.23, -1.05, -0.0, -0.0, 2.32, 8.22, 7.68, -0.0, -0.0, 2.33, 1.11, -0.0, -0.0, -0.0, -0.0, 0.74, 3.34, 5.18, 7.9, 9.1, 9.92, 9.08, 4.47, 2.24, 1.86, 3.84, 5.05, 1.7, 0.0, 0.6, 2.91, 4.73, 4.87, 6.55, 8.19, 7.45, 5.16, 3.39, 1.2, -0.89, -1.34, -1.34, -1.86, -1.9, -2.4, -2.17, 7.58, 7.13, 7.13, 7.06, 7.06, 6.61, 6.61, 6.61, 6.61, 6.97, 7.4, 7.87, 8.33, 8.79, 9.23, 9.68, 9.24, 9.23, 9.11, 7.87, 5.81, 3.58, 3.13, 3.13, 3.13, 2.68, 3.13, 3.58, 4.47, 4.92, 5.36, 4.92, 4.92, 3.58, 2.68, 1.9, 1.4, 1.2, 1.6, 1.2, 0.85, -0.0, -0.0, -0.0, -0.0, -0.0, -0.0, -1.19, -1.3, -0.0, -0.0, -0.0, -0.0, -1.4, -0.0, -0.0, 2.48, 6.06, 5.95, 1.09, -0.0, -0.0, -0.0, -1.09, -1.22, -0.0, -0.0, 1.14, 3.68, 5.03, 5.69, 9.27, 10.75, 9.83, 4.92, 3.79, 5.21, 7.59, 9.3, 9.2, 5.59, 2.68, 2.6, 1.9, 1.33, 3.97, 7.15, 7.45, 6.36, 5.86, 3.32, 0.0, -2.68, -3.13, -2.6, -2.6, -2.24, -2.24, 7.13, 7.13, 7.13, 7.06, 7.06, 6.61, 6.61, 6.61, 6.61, 6.94, 7.4, 7.87, 8.33, 8.77, 9.23, 9.24, 9.23, 9.23, 9.23, 8.33, 6.23, 3.58, 3.13, 3.58, 3.13, 3.13, 3.13, 3.58, 3.98, 4.92, 5.36, 5.36, 4.92, 4.92, 3.58, 2.54, 2.6, 2.23, 2.8, 2.21, 0.85, -0.0, -0.0, -0.0, -0.0, -0.0, -1.13, -1.27, -1.27, -1.8, -1.27, -0.0, -0.0, -0.0, -0.0, 1.2, 2.48, 2.32, 2.33, 1.07, -0.0, -0.0, -2.26, -3.4, -2.32, -1.23, -0.0, 1.23, 3.68, 5.37, 6.0, 9.81, 12.05, 8.01, 3.14, 4.5, 7.9, 10.81, 11.9, 11.88, 10.87, 9.6, 7.21, 2.24, 0.0, 0.0, 3.07, 3.58, 4.47, 3.97, 3.97, -1.34, -3.13, -1.34, -1.2, -1.34, -1.79, -1.79, 7.13, 7.13, 7.13, 7.06, 7.06, 6.61, 6.61, 6.61, 7.06, 6.94, 7.4, 7.87, 8.33, 8.77, 9.23, 9.23, 9.32, 9.32, 9.68, 9.23, 7.13, 4.02, 3.13, 3.58, 3.58, 3.58, 3.58, 3.53, 3.98, 4.88, 5.36, 5.36, 5.36, 5.36, 3.58, 3.47, 3.47, 3.39, 2.4, 1.9, -0.0, -0.0, -0.0, -0.0, -0.0, -0.0, -1.13, -1.4, -1.9, -1.9, -2.68, -1.79, -0.0, -0.0, -0.0, -0.0, 1.08, 1.19, 2.4, 2.6, 1.3, -0.0, -2.73, -3.79, -4.11, -2.53, -1.19, -0.0, 3.45, 8.15, 10.28, 10.05, 9.58, 4.43, 3.79, 5.63, 9.31, 13.46, 14.74, 13.49, 12.13, 11.5, 11.44, 7.73, 0.63, -1.9, 0.65, 1.7, 1.79, 2.68, 3.07, 1.79, 0.0, 0.0, 0.63, 0.45, 0.0, 0.0, 7.07, 7.06, 7.06, 7.06, 6.61, 6.61, 6.61, 6.61, 7.06, 6.94, 7.4, 7.87, 8.3, 8.86, 8.87, 9.32, 9.32, 9.32, 9.77, 9.68, 8.42, 5.36, 3.58, 3.58, 3.58, 3.58, 3.58, 3.53, 3.53, 3.98, 4.47, 4.92, 5.36, 5.36, 4.47, 4.47, 3.95, 4.24, 3.2, 1.9, -0.0, -0.0, -0.0, -0.0, -0.0, -0.0, -0.0, -0.0, -0.0, -1.58, -2.24, -2.24, -2.24, -1.58, -0.0, -0.0, -0.0, 1.6, 1.8, 2.84, 1.27, -0.0, -1.6, -2.73, -4.11, -3.48, -2.41, -1.4, 2.8, 8.49, 12.07, 10.73, 8.91, 7.03, 5.37, 6.01, 9.92, 13.68, 15.9, 13.99, 12.39, 11.88, 11.62, 6.58, 0.0, -2.12, -1.34, -0.45, 0.0, 0.89, 2.4, 2.91, 2.24, 1.7, 1.7, 1.7, 1.2, 1.2, 7.07, 7.06, 7.06, 7.06, 6.61, 6.61, 6.61, 6.61, 7.06, 7.06, 7.4, 7.4, 7.97, 8.42, 8.42, 8.36, 8.42, 8.87, 9.32, 9.77, 8.86, 5.81, 3.58, 3.13, 3.58, 3.13, 3.13, 3.13, 3.04, 3.53, 4.02, 4.47, 4.92, 4.92, 4.92, 4.47, 4.47, 4.43, 4.38, 3.39, 2.54, 0.89, 0.45, -0.0, -0.0, -0.0, -0.0, -0.0, -0.0, -0.0, -0.0, -0.0, -0.0, -0.0, -0.0, -0.0, -0.0, 1.4, 1.4, 1.4, 1.2, -0.0, -0.0, -1.49, -3.16, -3.16, -2.53, -0.0, 3.13, 7.15, 10.28, 11.86, 13.49, 12.58, 10.16, 7.6, 8.91, 12.07, 14.29, 14.13, 12.3, 11.98, 11.15, 9.81, 4.47, 0.63, -0.45, 0.6, 0.0, 0.0, 1.26, 2.5, 3.07, 2.6, 2.17, 2.17, 2.6, 2.6, 7.06, 7.06, 6.61, 6.61, 6.61, 6.61, 6.61, 6.61, 7.06, 7.06, 7.4, 7.4, 7.87, 8.42, 8.86, 8.86, 8.87, 8.42, 8.01, 8.01, 7.56, 5.36, 3.53, 3.13, 3.58, 3.58, 2.24, 3.07, 3.07, 3.07, 3.53, 4.02, 4.92, 4.92, 4.92, 4.92, 4.47, 4.47, 4.47, 4.02, 4.02, 3.13, 2.24, 0.95, -0.0, -0.0, -0.0, -0.0, -0.0, -0.0, -0.0, -0.0, -0.0, -0.0, -0.0, -0.0, 1.4, 1.26, 1.2, 1.58, -0.0, -0.0, -1.13, -2.73, -2.68, -3.16, -1.74, -0.0, 3.95, 6.71, 9.36, 11.52, 14.67, 15.65, 14.4, 10.87, 9.62, 10.28, 12.14, 12.05, 12.07, 12.07, 10.73, 8.49, 5.81, 3.13, 1.2, 1.2, 1.86, 1.7, 1.34, 2.68, 3.58, 3.07, 2.17, 2.17, 2.68, 2.68, 7.06, 7.06, 6.61, 6.61, 6.61, 6.61, 6.61, 6.61, 6.61, 7.06, 6.97, 7.4, 7.87, 8.41, 8.42, 8.87, 9.32, 8.79, 8.77, 8.8, 7.11, 7.15, 6.26, 5.33, 4.47, 4.44, 4.43, 3.53, 3.53, 3.07, 3.53, 3.98, 4.92, 4.92, 5.36, 4.92, 4.92, 4.47, 4.47, 4.47, 4.47, 4.02, 3.58, 2.6, 1.6, -0.0, -0.0, -0.0, -0.0, -0.0, -0.0, -0.0, -0.0, -0.0, -0.0, -0.0, 0.99, 1.24, 1.58, -0.0, -0.0, -1.27, -1.08, -2.23, -2.53, -2.53, -0.85, 0.85, 3.48, 6.28, 8.3, 11.18, 13.49, 12.52, 10.68, 9.23, 8.25, 8.56, 8.93, 9.27, 10.49, 11.18, 11.15, 8.84, 7.12, 3.53, 2.4, 2.5, 4.3, 3.53, 3.07, 3.32, 4.43, 3.58, 1.79, 1.79, 2.63, 2.63, 7.06, 7.06, 6.61, 6.6, 6.6, 6.61, 6.61, 6.61, 7.06, 6.94, 6.97, 7.4, 7.87, 7.87, 8.42, 8.86, 8.87, 9.32, 9.23, 9.23, 9.77, 9.82, 9.39, 8.05, 6.26, 5.33, 4.92, 4.47, 3.58, 3.53, 3.53, 3.98, 4.44, 5.36, 5.36, 5.36, 4.89, 4.92, 4.92, 4.92, 4.47, 4.02, 4.02, 4.02, 3.53, 2.6, 1.9, 2.24, -0.0, -0.0, -0.0, -0.0, -0.0, -0.0, -0.0, -0.0, 0.54, 1.2, -0.0, -1.58, -1.24, -1.4, -0.76, -0.76, -0.99, -0.99, -0.99, -0.0, 1.66, 3.68, 4.66, 7.96, 10.04, 7.06, 0.0, 2.76, 5.6, 5.52, 5.68, 6.44, 7.69, 8.67, 9.39, 9.54, 8.91, 7.28, 4.24, 3.82, 5.81, 6.26, 4.73, 3.6, 3.97, 3.58, 2.6, 2.4, 3.51, 3.51, 7.06, 7.06, 6.61, 6.6, 6.6, 6.6, 6.61, 6.61, 7.06, 6.94, 6.97, 7.4, 7.4, 7.87, 8.41, 8.42, 8.87, 8.87, 9.32, 9.32, 9.77, 9.82, 10.28, 9.83, 8.49, 6.71, 4.92, 4.47, 4.47, 4.02, 3.53, 3.98, 4.44, 4.92, 5.36, 5.36, 4.89, 5.33, 5.36, 5.36, 4.92, 4.47, 4.47, 4.47, 3.98, 3.39, 3.39, 2.68, 2.24, 1.58, -0.0, -0.0, -0.0, -0.0, -0.0, -0.0, -0.0, 1.66, 0.57, -0.63, -1.49, -1.4, -0.7, -0.0, -0.0, -0.76, -0.85, -0.85, -0.87, -0.76, -0.0, 3.45, 12.39, 4.77, -3.16, -0.67, 2.06, 3.61, 4.15, 4.15, 4.28, 5.46, 6.22, 8.05, 9.26, 9.11, 8.19, 6.66, 7.15, 7.12, 3.98, 2.12, 2.24, 3.07, 2.91, 3.53, 4.87, 4.87, 6.94, 6.94, 7.06, 6.61, 6.47, 6.47, 6.47, 6.51, 6.94, 6.94, 6.97, 7.4, 7.4, 7.87, 7.87, 8.42, 8.42, 8.87, 8.92, 9.37, 9.37, 9.82, 9.82, 9.83, 9.39, 8.49, 6.71, 4.92, 4.44, 4.43, 4.02, 4.02, 4.47, 4.92, 5.36, 5.36, 5.36, 5.36, 5.36, 5.36, 5.36, 4.92, 4.92, 4.47, 4.44, 4.43, 4.77, 3.82, 3.39, 3.82, 3.2, 1.4, 1.4, -0.0, -0.0, -0.0, -0.0, 0.81, 2.4, 0.6, -1.24, -1.24, -0.71, -0.0, -0.57, -0.0, -0.0, -1.9, -1.9, -2.53, -0.85, 10.22, 14.9, 14.49, 8.37, 1.2, 0.0, 2.17, 3.25, 2.02, 2.11, 2.72, 4.73, 6.85, 8.46, 8.94, 8.94, 8.05, 5.77, 5.6, 3.82, 2.49, 2.24, 2.68, 3.13, 4.02, 4.92, 4.92, 6.94, 6.94, 6.94, 6.51, 6.51, 6.47, 6.47, 6.51, 6.94, 6.94, 6.97, 7.4, 7.4, 7.87, 7.87, 8.41, 8.42, 8.42, 8.92, 8.92, 9.37, 9.37, 9.39, 9.83, 9.83, 9.37, 8.94, 7.15, 5.33, 4.43, 4.43, 4.47, 4.92, 5.36, 5.81, 5.81, 5.36, 5.36, 5.36, 5.36, 5.81, 5.36, 5.36, 4.89, 4.89, 4.88, 4.77, 4.77, 4.77, 4.77, 4.6, 4.34, 2.53, 1.6, 1.6, -0.0, -0.0, -0.0, 2.98, 3.79, 1.27, -0.0, -0.0, -0.0, -0.0, 0.89, -0.95, -1.0, -0.85, -0.0, 4.47, 8.45, 13.01, 14.95, 15.59, 10.68, 3.07, 1.41, 2.06, 1.52, 0.72, 1.44, 3.26, 6.0, 6.94, 6.98, 6.66, 4.92, 3.82, 3.78, 6.7, 7.2, 5.77, 3.58, 3.04, 3.07, 3.13, 3.13, 6.94, 6.94, 6.94, 6.94, 6.51, 6.47, 6.47, 6.51, 6.94, 6.94, 6.94, 7.4, 7.4, 7.4, 7.87, 7.97, 8.41, 8.42, 8.42, 8.92, 8.92, 8.92, 9.39, 9.39, 9.39, 9.83, 9.83, 8.94, 7.15, 4.89, 4.43, 4.44, 4.92, 5.36, 5.81, 6.26, 5.81, 5.36, 5.36, 5.36, 5.36, 5.81, 5.78, 5.34, 5.33, 5.33, 5.33, 4.8, 4.6, 5.09, 5.51, 5.02, 4.77, 3.35, 2.84, 1.27, -0.0, -0.0, 1.27, 1.14, 2.16, 1.6, 1.2, 0.6, 0.95, 0.89, -1.0, -0.79, 1.49, 3.22, 4.85, 7.5, 10.01, 12.64, 14.7, 15.75, 10.91, 2.21, 0.0, 0.0, 0.0, 0.67, 2.66, 3.76, 4.12, 4.66, 4.87, 4.47, 3.53, 3.32, 4.24, 9.45, 9.89, 5.78, 2.17, 1.2, 1.79, 1.79, 6.94, 6.94, 6.94, 6.94, 6.51, 6.51, 6.47, 6.51, 6.94, 6.94, 6.94, 7.4, 7.4, 7.4, 7.87, 7.97, 7.97, 8.42, 8.42, 8.42, 8.47, 8.92, 8.94, 8.94, 9.39, 9.39, 9.83, 9.83, 8.94, 7.15, 4.89, 4.88, 4.3, 4.89, 5.81, 6.26, 7.15, 7.15, 6.26, 5.36, 4.92, 4.92, 5.36, 5.78, 5.78, 5.78, 5.33, 4.89, 4.77, 4.77, 5.09, 5.09, 4.77, 4.11, 3.58, 1.8, 1.41, 1.6, -0.0, -0.0, 1.14, 4.01, 3.16, 1.86, 1.6, -0.0, -0.88, -0.0, 2.53, 4.84, 5.75, 6.51, 8.36, 10.43, 10.9, 12.89, 14.74, 5.2, 0.0, 0.0, 0.0, 0.0, 0.69, 1.35, 2.48, 3.43, 4.93, 4.43, 3.58, 3.07, 3.07, 5.32, 9.83, 8.19, 3.39, 1.79, 1.79, 1.79, 7.4, 7.4, 6.94, 6.94, 6.94, 6.51, 6.51, 6.94, 6.94, 6.94, 6.94, 6.94, 7.4, 7.4, 7.4, 7.87, 7.97, 8.41, 8.42, 8.42, 8.47, 8.47, 8.92, 8.94, 8.94, 9.39, 9.39, 9.39, 9.39, 9.39, 8.49, 6.68, 4.77, 4.88, 5.33, 6.26, 7.15, 7.6, 7.15, 6.26, 5.36, 4.92, 4.92, 5.36, 5.36, 5.36, 5.33, 4.89, 4.77, 4.77, 5.24, 5.24, 5.24, 4.34, 3.35, 2.41, 2.73, 1.27, -0.0, -0.0, 1.66, 4.19, 4.19, 3.07, 1.7, 1.18, -0.0, -0.0, 2.0, 4.66, 6.51, 6.71, 6.71, 7.6, 9.26, 11.4, 14.22, 13.05, 3.07, 0.0, 0.54, 1.8, 1.76, 0.63, 1.47, 2.88, 4.12, 3.32, 3.13, 3.13, 2.68, 3.58, 8.8, 8.55, 7.33, 4.93, 3.39, 3.39, 7.4, 7.4, 6.97, 6.94, 6.94, 6.94, 6.94, 6.94, 6.94, 6.94, 6.94, 6.94, 7.4, 7.4, 7.4, 7.84, 7.87, 7.97, 8.41, 8.42, 8.42, 8.47, 8.47, 8.92, 8.94, 8.94, 8.94, 9.39, 9.39, 9.39, 9.39, 8.03, 6.23, 4.8, 5.33, 5.81, 6.71, 7.6, 7.6, 7.15, 6.71, 5.81, 5.36, 4.02, 4.02, 5.33, 5.33, 5.24, 5.09, 4.77, 5.24, 5.24, 5.24, 4.77, 4.11, 3.14, 3.79, 2.4, -0.0, -0.0, 2.41, 3.84, 2.4, 2.47, 2.35, 0.78, 1.55, -0.0, 0.0, 2.97, 6.21, 7.42, 6.26, 6.02, 8.0, 10.95, 12.14, 13.41, 12.42, 5.81, 2.23, 2.6, 2.84, 2.44, 0.61, 0.61, 0.65, 1.0, 1.86, 2.24, 2.63, 3.32, 5.72, 7.56, 7.73, 7.85, 7.73, 7.73, 7.4, 7.4, 6.97, 6.94, 6.94, 6.94, 6.94, 6.94, 6.94, 6.94, 6.94, 6.94, 6.94, 7.4, 7.4, 7.4, 7.84, 7.97, 7.97, 8.41, 8.42, 8.47, 8.47, 8.47, 8.47, 8.47, 8.94, 8.94, 9.39, 9.39, 9.39, 8.49, 7.13, 5.78, 5.24, 5.78, 6.26, 7.15, 7.6, 7.6, 7.6, 6.71, 6.26, 5.81, 5.78, 5.59, 5.09, 4.6, 5.09, 5.57, 5.99, 5.99, 5.24, 4.77, 4.6, 3.88, 3.78, 2.86, 2.53, 1.6, 2.84, 2.53, 1.6, 1.55, 0.82, 0.78, 2.4, 3.49, 0.45, 0.8, 3.6, 6.44, 8.95, 8.46, 8.14, 9.3, 10.28, 10.43, 12.96, 15.18, 11.15, 8.0, 6.79, 6.0, 4.8, 1.9, 1.0, 1.26, 1.79, 2.6, 3.49, 5.46, 7.92, 7.6, 7.85, 8.8, 9.05, 9.05, 7.4, 7.4, 7.4, 7.4, 7.4, 6.94, 6.94, 6.94, 6.94, 6.94, 6.94, 6.94, 6.94, 7.4, 7.4, 7.4, 7.4, 7.84, 7.97, 7.97, 7.97, 7.97, 8.41, 8.47, 8.47, 8.47, 8.47, 8.49, 8.94, 8.94, 9.39, 8.94, 8.05, 6.68, 5.78, 5.34, 6.23, 6.68, 7.15, 7.6, 7.58, 7.58, 7.13, 6.68, 6.68, 6.51, 6.07, 5.81, 5.81, 6.3, 6.47, 6.94, 6.47, 5.09, 5.02, 4.4, 4.0, 3.48, 2.86, 3.48, 2.3, 1.55, 1.55, 1.8, -0.0, -0.88, -0.0, 3.4, 4.43, 2.8, 1.74, 4.74, 9.03, 12.7, 13.67, 9.74, 6.88, 6.24, 8.3, 14.13, 16.93, 12.66, 9.63, 9.23, 9.82, 9.37, 8.92, 6.26, 6.58, 6.54, 6.32, 6.96, 7.92, 9.05, 9.34, 9.34, 9.34, 9.34, 7.26, 7.26, 7.26, 7.4, 7.4, 7.26, 6.79, 6.79, 6.79, 6.79, 6.79, 6.94, 6.94, 6.94, 7.4, 7.4, 7.4, 7.4, 7.95, 7.97, 7.97, 7.97, 7.97, 7.97, 8.47, 8.47, 8.47, 8.03, 8.05, 8.05, 8.49, 8.49, 8.05, 7.15, 5.78, 5.78, 5.78, 6.23, 6.68, 7.13, 7.58, 7.58, 7.58, 7.58, 7.07, 7.06, 6.47, 6.3, 6.3, 6.47, 6.94, 7.37, 7.21, 6.79, 5.99, 4.8, 4.8, 4.0, 3.79, 3.49, 2.53, 1.49, 1.24, 1.49, -0.0, -0.87, -0.85, 1.19, 5.06, 5.24, 2.6, 4.38, 6.61, 11.13, 16.54, 13.77, 2.07, 0.0, 3.91, 10.09, 14.93, 12.88, 7.15, 8.05, 10.28, 12.06, 13.36, 13.19, 10.75, 8.25, 6.32, 5.72, 6.32, 8.4, 9.45, 9.34, 9.34, 9.34, 7.26, 7.26, 7.26, 7.26, 7.26, 7.26, 7.21, 7.21, 6.6, 6.79, 6.79, 6.79, 6.94, 6.94, 6.94, 7.4, 7.4, 7.4, 7.51, 7.51, 7.97, 7.97, 7.97, 7.97, 7.97, 8.47, 8.47, 8.47, 8.03, 7.15, 8.05, 8.49, 8.05, 7.15, 6.26, 5.78, 5.78, 6.23, 6.68, 6.68, 7.15, 7.58, 7.58, 7.58, 7.51, 7.06, 6.51, 6.47, 6.47, 6.47, 6.94, 6.94, 7.4, 7.4, 6.47, 5.57, 5.09, 4.55, 4.07, 3.49, 2.86, 1.74, 2.48, 1.74, -0.0, -0.0, -0.0, 0.85, 4.4, 6.23, 5.09, 4.47, 5.75, 8.05, 15.01, 17.25, 2.24, -2.98, 0.67, 6.98, 11.52, 9.81, 3.82, 2.5, 7.5, 10.71, 12.91, 13.3, 10.93, 6.54, 3.79, 3.48, 5.05, 6.54, 8.48, 9.08, 8.25, 8.25, 7.26, 7.26, 7.26, 7.26, 7.26, 7.09, 7.09, 7.01, 6.8, 6.6, 6.51, 6.51, 6.3, 6.79, 6.94, 6.94, 6.94, 7.4, 7.4, 7.51, 7.51, 7.97, 7.97, 7.97, 7.97, 7.97, 8.03, 8.03, 8.47, 8.47, 8.49, 8.94, 8.47, 8.05, 6.71, 5.79, 5.78, 5.78, 6.23, 6.71, 6.71, 7.15, 7.6, 7.58, 7.51, 7.07, 6.94, 6.47, 6.47, 6.47, 6.47, 6.94, 6.94, 7.4, 6.94, 6.16, 5.09, 4.8, 4.07, 3.49, 3.22, 2.73, 2.73, 1.19, -0.0, 0.79, 1.74, 2.98, 4.77, 6.14, 5.34, 4.8, 5.36, 7.15, 11.62, 17.25, 12.14, 1.2, 0.0, 4.94, 8.49, 4.87, 1.9, 1.2, 3.32, 8.49, 11.18, 11.61, 7.92, 3.14, 1.61, 1.49, 2.86, 5.64, 6.58, 8.48, 7.56, 7.56, 7.51, 7.51, 7.51, 7.51, 7.51, 7.51, 7.51, 6.8, 6.8, 6.67, 6.28, 6.28, 6.1, 6.1, 5.6, 6.51, 6.94, 6.94, 6.97, 7.4, 7.51, 7.51, 7.51, 7.97, 7.97, 7.97, 7.97, 7.97, 8.03, 8.47, 8.47, 8.92, 8.92, 8.47, 7.6, 6.26, 5.78, 5.78, 5.78, 6.26, 6.71, 7.15, 7.15, 7.15, 7.58, 7.07, 7.06, 6.6, 6.6, 6.6, 6.47, 6.47, 6.94, 6.94, 6.94, 6.6, 5.7, 4.8, 4.07, 3.49, 3.49, 3.49, 2.2, 1.3, 1.3, 1.27, 1.26, 3.47, 4.41, 4.84, 3.9, 4.46, 7.07, 8.14, 9.81, 13.05, 15.36, 12.56, 8.49, 7.03, 5.06, 0.89, -0.0, 1.58, 3.82, 8.02, 8.47, 3.82, 2.68, 2.21, 1.61, 1.58, 2.12, 3.51, 3.97, 4.87, 6.36, 6.36, 7.51, 7.51, 7.51, 7.51, 7.51, 7.51, 7.51, 6.8, 6.8, 6.41, 6.03, 5.49, 5.75, 5.21, 5.08, 5.81, 6.51, 6.94, 6.94, 6.97, 7.4, 7.51, 7.51, 7.51, 7.52, 7.97, 7.97, 8.03, 7.97, 8.03, 8.47, 8.47, 8.92, 8.92, 8.03, 7.15, 5.81, 5.34, 5.81, 6.26, 6.26, 6.71, 7.15, 7.15, 7.13, 7.13, 7.06, 6.61, 6.6, 6.16, 6.16, 6.16, 6.6, 7.06, 7.06, 6.6, 5.7, 4.8, 4.07, 3.78, 4.11, 3.49, 2.4, 0.79, 0.71, 2.84, 1.7, 3.13, 2.53, 1.52, 2.21, 4.71, 8.15, 10.01, 9.72, 8.91, 10.75, 13.35, 16.54, 15.58, 7.48, 0.0, -0.0, 1.7, 3.07, 2.91, 1.9, 1.0, 1.58, 2.15, 2.4, 2.4, 2.12, 2.12, 3.07, 3.97, 4.73, 4.73, 7.51, 7.51, 7.51, 7.58, 7.58, 7.51, 7.51, 7.51, 7.01, 6.67, 5.49, 5.29, 4.65, 4.55, 4.55, 5.31, 6.47, 6.94, 6.94, 7.06, 7.06, 7.07, 7.51, 7.51, 7.51, 7.52, 7.97, 7.97, 7.97, 7.97, 8.03, 8.47, 8.47, 8.92, 8.47, 7.58, 6.26, 5.36, 5.36, 5.81, 6.26, 6.71, 6.71, 7.15, 6.71, 6.68, 6.68, 6.68, 6.68, 6.23, 6.23, 6.23, 6.23, 6.68, 6.61, 6.6, 6.14, 4.9, 3.78, 3.49, 3.79, 3.79, 2.4, 1.6, 1.24, 3.35, 3.47, 1.74, -0.0, -0.0, 1.63, 4.56, 8.0, 10.8, 10.01, 8.01, 6.26, 10.28, 16.07, 18.65, 12.89, 2.17, 0.0, 0.89, 1.7, 2.15, 1.61, 1.24, 1.86, 2.0, 2.4, 2.17, 2.12, 1.79, 2.24, 3.13, 4.02, 4.87, 7.51, 7.51, 7.58, 8.0, 8.0, 8.0, 7.51, 7.51, 7.69, 7.21, 6.0, 5.81, 4.55, 4.27, 4.27, 5.02, 5.57, 6.47, 6.51, 7.06, 7.06, 7.06, 7.07, 7.51, 7.51, 7.51, 7.52, 7.97, 7.97, 8.03, 8.03, 8.03, 8.47, 8.92, 8.42, 8.03, 6.68, 5.81, 5.36, 5.36, 5.81, 6.26, 6.26, 6.71, 6.26, 6.71, 6.71, 6.71, 6.26, 6.26, 5.81, 5.81, 6.23, 6.23, 6.6, 6.47, 6.47, 5.81, 4.11, 3.79, 4.07, 3.79, 3.79, 1.49, 0.99, 3.72, 2.73, -0.0, -0.0, -0.0, 1.6, 3.45, 6.87, 9.9, 12.08, 10.68, 5.77, 8.55, 12.5, 14.15, 10.26, 2.91, 0.45, 0.0, 0.63, 1.26, 1.58, 1.58, 1.86, 2.17, 2.17, 2.17, 2.24, 2.24, 2.24, 2.6, 3.51, 4.02, 7.51, 7.51, 7.58, 8.17, 8.17, 8.17, 8.17, 8.17, 7.74, 7.87, 8.41, 7.51, 5.7, 4.3, 3.87, 4.6, 5.51, 5.99, 6.47, 6.51, 7.06, 7.06, 7.06, 7.07, 7.07, 7.51, 7.51, 7.97, 8.03, 8.03, 8.03, 8.03, 8.47, 8.47, 8.86, 8.42, 7.58, 6.26, 5.36, 5.36, 5.81, 5.81, 6.26, 6.26, 7.15, 6.71, 6.71, 6.71, 6.26, 5.81, 5.81, 5.78, 5.78, 6.23, 6.16, 6.47, 6.94, 5.47, 5.01, 4.11, 4.07, 4.0, 3.16, 3.48, 2.48, 2.48, 0.88, -0.0, -0.0, 0.88, 1.55, 2.4, 5.93, 7.81, 11.52, 12.52, 11.83, 8.91, 8.36, 5.2, 1.58, 0.45, 0.0, 0.0, 0.0, 0.63, 0.95, 1.26, 1.7, 2.17, 2.24, 2.24, 2.68, 2.17, 2.12, 2.4, 3.32, 3.51, 7.51, 7.51, 7.58, 8.17, 8.17, 8.17, 8.3, 8.33, 8.33, 8.86, 8.42, 8.47, 7.6, 5.81, 4.92, 5.24, 5.7, 5.99, 6.04, 6.47, 6.61, 7.06, 7.06, 7.06, 7.07, 7.07, 7.51, 7.51, 8.03, 8.03, 8.03, 8.03, 8.03, 8.47, 8.47, 8.42, 7.97, 6.68, 5.36, 4.92, 5.36, 5.81, 6.23, 6.23, 6.68, 7.15, 6.71, 6.71, 6.26, 5.81, 5.78, 5.78, 5.78, 6.23, 6.16, 6.51, 6.94, 6.0, 5.21, 4.65, 4.37, 3.78, 3.79, 2.48, 2.48, 2.73, 0.79, -0.0, -0.0, 0.88, 1.55, 2.53, 4.11, 5.93, 7.27, 11.3, 14.08, 15.75, 13.1, 6.4, 0.89, -0.63, -0.6, -0.63, -0.45, 0.0, 0.45, 1.2, 1.79, 2.24, 2.17, 2.4, 2.8, 2.23, 2.6, 1.9, 2.5, 2.5, 7.51, 7.51, 7.51, 7.74, 8.17, 8.17, 8.33, 8.33, 8.33, 8.86, 8.86, 8.47, 8.05, 7.15, 6.26, 5.78, 6.16, 6.16, 6.16, 6.6, 6.6, 6.61, 7.06, 7.06, 7.07, 7.07, 7.51, 7.51, 7.58, 8.03, 8.03, 7.97, 7.97, 8.47, 8.47, 8.42, 8.42, 7.51, 6.26, 4.92, 5.36, 5.81, 6.23, 6.16, 6.6, 7.06, 7.13, 6.71, 6.71, 6.26, 6.26, 6.23, 6.23, 6.23, 6.68, 6.61, 6.3, 6.1, 5.6, 5.21, 4.55, 4.0, 3.16, 3.16, 2.48, 2.2, 1.3, -0.0, -0.0, 0.73, 1.66, 2.3, 4.11, 4.01, 5.03, 7.81, 11.52, 16.11, 17.73, 15.75, 12.05, 6.32, 0.45, -1.86, -1.79, -0.89, 0.0, 0.89, 2.17, 2.4, 2.68, 2.5, 2.21, 1.88, 1.24, 1.26, 1.26, 1.26, 7.51, 7.51, 7.51, 7.74, 7.74, 8.17, 8.3, 8.3, 8.33, 8.42, 8.42, 8.47, 8.05, 7.6, 7.15, 6.68, 6.61, 6.6, 6.6, 6.6, 6.6, 6.6, 6.61, 7.06, 7.07, 7.07, 7.07, 7.51, 7.51, 7.97, 7.97, 7.97, 7.97, 7.97, 8.47, 8.42, 8.42, 7.97, 6.68, 5.36, 5.36, 5.36, 5.78, 6.16, 6.47, 6.51, 7.06, 6.68, 6.68, 6.71, 6.26, 6.26, 6.26, 6.26, 6.68, 6.68, 6.04, 6.23, 6.0, 5.47, 4.93, 4.0, 3.16, 3.48, 2.73, 2.4, 1.3, -0.0, -0.0, 0.79, 1.8, 1.8, 2.4, 4.01, 4.74, 6.44, 9.84, 13.04, 15.67, 15.12, 15.05, 15.91, 9.32, 0.0, -2.24, -0.89, 0.45, 1.7, 2.5, 2.68, 2.5, 2.15, 1.9, 1.26, 0.95, 0.89, 0.89, 0.89, 7.51, 7.51, 7.51, 7.69, 7.74, 7.74, 7.74, 7.87, 8.3, 8.41, 8.41, 8.03, 8.03, 7.58, 7.58, 7.13, 7.06, 7.06, 7.06, 6.61, 6.61, 6.61, 6.61, 7.06, 7.06, 7.13, 7.51, 7.51, 7.51, 7.51, 7.97, 7.97, 7.97, 7.97, 7.97, 8.42, 8.42, 8.42, 7.51, 6.23, 5.36, 5.36, 5.78, 6.16, 6.6, 6.47, 6.47, 6.6, 6.61, 6.68, 6.68, 6.26, 6.26, 6.26, 6.68, 6.16, 5.57, 5.81, 6.0, 5.6, 4.93, 3.78, 3.16, 2.86, 2.4, 2.4, 1.19, -0.0, -0.0, 0.85, 1.41, 1.66, 1.55, 4.11, 5.21, 6.7, 8.4, 10.95, 11.44, 11.87, 12.72, 15.29, 16.85, 6.36, -1.34, -0.89, 1.34, 2.4, 1.9, 1.26, 1.58, 0.63, 0.63, 0.45, 0.45, -0.0, -0.0, -0.0, 7.51, 7.51, 7.51, 7.69, 7.69, 7.69, 7.74, 7.87, 7.87, 7.87, 7.97, 7.97, 7.97, 7.52, 7.51, 7.51, 7.51, 7.07, 7.07, 7.06, 7.13, 6.68, 6.61, 6.61, 7.06, 7.07, 7.51, 7.51, 7.51, 7.51, 7.97, 7.97, 7.97, 7.97, 7.97, 8.42, 8.42, 8.42, 7.97, 7.06, 5.78, 5.36, 5.81, 5.78, 6.23, 6.16, 6.16, 6.16, 6.6, 6.61, 6.6, 6.23, 6.26, 6.26, 6.23, 5.7, 5.67, 5.57, 5.6, 5.6, 4.93, 3.78, 3.16, 2.86, 2.44, 2.2, 1.41, 0.85, 0.85, 0.54, 1.66, 1.66, 2.68, 4.22, 5.09, 6.02, 7.21, 8.55, 8.32, 8.53, 11.06, 15.75, 18.68, 12.97, 1.7, -0.63, 0.63, 1.2, 0.0, -1.58, -1.58, -0.63, -0.45, -0.32, -0.63, -0.63, -0.63, -0.63, 7.51, 7.51, 7.51, 7.69, 7.69, 7.69, 7.69, 7.69, 7.87, 7.87, 7.87, 7.97, 7.97, 7.51, 7.51, 7.51, 7.51, 7.51, 7.07, 7.07, 7.13, 7.13, 7.13, 6.61, 7.06, 7.07, 7.51, 7.51, 7.51, 7.51, 7.51, 7.97, 7.97, 7.97, 7.97, 7.97, 8.42, 8.33, 8.33, 7.97, 6.68, 5.78, 5.36, 5.36, 5.81, 5.78, 5.78, 6.23, 6.16, 6.16, 6.23, 5.78, 5.81, 5.36, 5.78, 5.33, 5.24, 5.51, 5.81, 5.47, 4.55, 3.43, 2.86, 2.48, 2.44, 2.73, 1.27, 1.27, 1.27, 1.74, 1.6, 1.6, 3.6, 4.38, 4.66, 4.6, 5.15, 6.32, 6.53, 6.14, 9.17, 14.13, 17.35, 15.91, 5.72, -0.6, -1.26, -2.24, -2.6, -2.4, -2.4, -2.12, -1.7, -1.7, -1.7, -1.7, -1.7, -1.7, 7.51, 7.51, 7.51, 7.51, 7.69, 7.69, 7.69, 7.69, 7.84, 7.84, 7.84, 7.84, 7.84, 7.51, 7.51, 7.51, 7.51, 7.51, 7.51, 7.07, 7.06, 7.13, 7.13, 7.06, 7.06, 7.06, 7.51, 7.51, 7.51, 7.51, 7.51, 7.97, 7.97, 7.95, 7.97, 7.97, 8.41, 8.33, 8.33, 7.87, 7.51, 6.68, 5.78, 5.36, 5.36, 5.36, 5.34, 5.78, 5.78, 5.78, 5.36, 5.36, 5.36, 5.33, 5.33, 5.33, 5.24, 5.51, 5.81, 5.31, 4.8, 3.43, 2.86, 2.48, 2.22, 2.73, 2.48, 1.27, 1.6, 0.95, 0.63, 2.6, 3.6, 3.22, 1.83, 1.72, 3.2, 4.71, 6.14, 6.24, 7.59, 11.52, 14.42, 16.87, 10.07, -1.34, -4.3, -3.58, -2.91, -2.5, -2.8, -2.4, -2.6, -2.17, -2.17, -1.79, -1.79, -1.79, 7.51, 7.51, 7.51, 7.51, 7.69, 7.69, 7.69, 7.69, 7.26, 7.4, 7.4, 7.4, 7.4, 7.4, 7.51, 7.51, 7.51, 7.51, 7.51, 7.51, 7.06, 7.07, 7.07, 7.06, 7.06, 7.06, 7.07, 7.51, 7.51, 7.51, 7.51, 7.97, 7.97, 7.87, 7.87, 7.87, 8.3, 8.3, 8.3, 7.87, 7.97, 7.07, 6.68, 5.78, 5.33, 4.89, 4.89, 5.33, 5.33, 4.89, 4.92, 4.92, 5.33, 5.33, 5.33, 5.33, 5.24, 5.4, 5.4, 5.31, 4.27, 3.43, 2.51, 2.23, 2.23, 2.41, 1.8, 1.4, 1.26, 1.6, 1.6, -0.0, 0.76, -0.0, -0.0, 0.79, 2.35, 3.2, 4.46, 5.49, 6.64, 8.27, 10.04, 14.37, 15.27, 2.5, -3.13, -2.63, -1.86, -1.86, -1.86, -1.86, -2.17, -1.7, -1.7, -1.34, -1.34, -1.34, 7.51, 7.51, 7.51, 7.51, 7.69, 7.69, 7.69, 7.26, 7.4, 7.4, 7.4, 7.4, 7.4, 7.4, 7.51, 7.51, 7.51, 7.51, 7.51, 7.51, 7.07, 7.07, 7.51, 7.07, 7.06, 7.06, 7.07, 7.51, 7.51, 7.51, 7.51, 7.97, 7.87, 7.84, 7.87, 7.87, 8.3, 8.3, 8.3, 7.87, 7.97, 7.51, 7.06, 6.68, 5.78, 5.34, 5.24, 5.24, 5.33, 5.36, 5.36, 5.34, 5.78, 5.78, 5.78, 5.24, 5.51, 5.57, 5.4, 4.9, 4.27, 3.16, 2.84, 2.84, 2.51, 2.41, 1.6, 2.15, 2.21, 2.84, 1.74, -0.0, -2.3, -2.35, -1.52, -0.0, 1.72, 2.47, 3.2, 5.59, 6.24, 7.27, 7.9, 11.54, 17.59, 0.0, -2.63, -1.26, -0.0, 0.95, 0.45, -0.8, -1.2, -1.2, -0.63, -0.0, -0.0, -0.0, 7.51, 7.51, 7.51, 7.51, 7.69, 7.69, 7.69, 7.26, 7.4, 7.4, 7.4, 7.4, 7.4, 7.4, 7.4, 7.51, 7.51, 7.51, 7.51, 7.51, 7.51, 7.51, 7.07, 7.06, 7.06, 7.06, 7.51, 7.51, 7.51, 7.51, 7.51, 7.95, 7.84, 7.84, 7.87, 7.87, 8.3, 8.3, 8.3, 7.87, 7.97, 7.51, 7.51, 7.06, 6.68, 6.16, 6.16, 6.16, 6.23, 6.26, 6.23, 6.16, 6.16, 5.78, 5.78, 5.7, 5.7, 5.57, 5.51, 4.8, 3.88, 3.14, 3.14, 3.14, 3.14, 2.23, 1.74, 2.53, 2.68, 2.53, 2.53, 0.79, -0.79, -2.4, -1.7, -0.0, 0.76, 1.6, 2.47, 4.03, 5.89, 6.95, 8.03, 10.8, 17.87, 4.92, -0.6, -0.0, 1.34, 2.68, 2.4, 0.63, -0.45, 0.45, -0.0, 0.63, 0.63, 0.63, 7.51, 7.51, 7.51, 7.51, 7.69, 7.69, 7.26, 7.26, 7.26, 7.4, 7.4, 7.4, 7.4, 7.4, 7.4, 7.4, 7.4, 7.51, 7.51, 7.51, 7.51, 7.51, 7.07, 7.06, 7.06, 7.07, 7.4, 7.4, 7.4, 7.51, 7.4, 7.84, 7.84, 7.4, 7.84, 7.87, 8.3, 8.3, 8.3, 7.87, 7.51, 7.51, 7.13, 7.13, 7.13, 7.13, 7.13, 7.13, 7.15, 7.15, 6.68, 6.61, 6.6, 5.78, 5.78, 5.33, 5.7, 5.57, 5.51, 4.6, 3.72, 3.35, 2.79, 3.07, 2.53, 2.23, 1.74, 1.6, 1.66, 1.55, 1.55, -0.0, -0.0, -1.7, -1.7, -0.81, -0.0, 0.73, 1.55, 3.9, 4.95, 7.02, 8.67, 19.53, 14.69, 2.15, -0.63, 0.63, 1.24, 2.21, 2.15, 0.6, 0.0, 0.45, 0.6, 1.24, 1.24, 1.24, 7.51, 7.51, 7.51, 7.51, 7.69, 7.69, 7.26, 7.26, 7.26, 7.4, 7.4, 7.4, 7.4, 7.4, 7.4, 7.4, 7.4, 7.4, 7.4, 7.4, 7.4, 7.51, 7.06, 7.07, 7.51, 7.4, 7.4, 7.4, 7.4, 7.4, 7.4, 7.4, 7.4, 7.4, 7.4, 7.87, 7.87, 8.3, 7.87, 7.87, 7.4, 7.07, 7.13, 7.13, 7.13, 7.58, 7.58, 7.6, 7.15, 7.13, 6.68, 6.61, 6.26, 5.81, 5.36, 5.33, 5.24, 5.7, 5.09, 4.52, 3.6, 3.6, 3.07, 3.07, 2.53, 2.53, 1.84, 1.27, 0.79, 0.79, -0.0, -0.81, -0.81, -0.88, -1.83, -0.7, -0.66, 0.81, 3.11, 4.01, 4.29, 6.39, 12.7, 19.25, 11.46, -0.99, -3.13, -0.89, -0.63, -0.57, -0.95, -0.45, 0.0, 0.6, 0.54, 1.4, 1.4, 1.4, 7.51, 7.51, 7.51, 7.51, 7.69, 7.26, 7.26, 7.26, 7.4, 7.4, 7.4, 7.4, 7.4, 7.4, 7.37, 6.94, 6.94, 6.94, 7.4, 7.4, 6.97, 7.06, 7.06, 7.4, 7.4, 7.4, 7.4, 6.97, 7.4, 7.4, 7.4, 7.4, 7.4, 7.4, 7.4, 7.4, 7.87, 7.97, 7.87, 7.87, 7.4, 7.07, 7.06, 7.13, 7.13, 7.13, 7.15, 7.15, 7.15, 7.15, 6.68, 6.68, 6.26, 5.81, 5.36, 5.33, 5.24, 5.24, 4.77, 4.11, 3.6, 3.6, 3.39, 3.07, 2.5, 1.88, 1.84, 1.13, 0.87, -0.0, -1.66, -1.8, -1.98, -0.87, -1.8, -2.68, -1.33, -0.0, 2.6, 3.47, 4.01, 5.43, 10.28, 16.24, 15.33, 1.2, -4.02, -3.32, -3.39, -3.53, -2.91, -0.57, -0.0, 0.65, 0.61, 1.33, 1.33, 1.33, 7.51, 7.51, 7.51, 7.51, 7.69, 7.26, 7.26, 7.26, 7.37, 7.4, 7.4, 7.4, 7.4, 7.37, 6.94, 6.94, 6.94, 6.94, 6.94, 6.94, 7.06, 7.06, 6.94, 7.4, 7.4, 7.4, 6.94, 6.94, 7.4, 7.4, 7.4, 7.4, 7.4, 7.4, 7.4, 7.4, 7.4, 7.97, 7.97, 7.87, 7.4, 7.51, 7.06, 6.68, 6.68, 7.13, 7.15, 7.15, 7.15, 6.71, 6.71, 6.71, 6.26, 5.81, 5.36, 4.89, 5.33, 5.24, 4.77, 4.11, 3.82, 3.82, 3.39, 2.91, 2.5, 1.61, 1.4, 1.33, -0.0, -0.76, -1.6, -1.74, -1.9, -0.99, -1.6, -2.15, -2.21, -0.87, 1.49, 2.53, 3.35, 6.44, 9.03, 12.29, 16.96, 11.45, 0.45, -3.97, -3.07, -2.79, -2.53, -1.16, -0.0, 0.7, 0.7, 1.33, 1.33, 1.33, 7.51, 7.51, 7.51, 7.51, 7.09, 7.26, 7.26, 7.21, 6.79, 7.37, 7.4, 7.4, 7.4, 6.94, 6.94, 6.94, 6.94, 6.94, 6.94, 6.94, 6.94, 6.94, 6.94, 7.4, 7.4, 6.94, 6.94, 6.94, 7.4, 7.4, 7.4, 7.4, 7.4, 7.4, 7.4, 7.4, 7.4, 7.51, 7.97, 7.87, 7.87, 7.4, 7.06, 6.68, 6.68, 6.68, 6.68, 6.71, 6.71, 6.71, 6.71, 6.71, 6.26, 5.81, 5.36, 5.33, 5.33, 4.89, 4.34, 3.87, 3.87, 3.97, 3.53, 2.91, 2.4, 1.9, 1.2, 0.61, -0.0, -0.0, -0.85, -1.9, -1.9, -1.26, -1.24, -1.8, -1.98, -1.74, -0.0, 1.98, 4.22, 5.75, 8.19, 11.52, 15.47, 17.27, 7.6, -1.2, -2.17, -1.2, -0.59, -0.63, -0.0, 1.27, 1.27, 1.41, 1.41, 1.41, 7.51, 7.51, 7.51, 7.51, 7.09, 7.26, 7.21, 6.79, 6.79, 6.94, 7.4, 7.4, 7.4, 6.94, 6.94, 6.94, 6.94, 6.94, 6.94, 6.94, 6.94, 6.94, 7.4, 7.4, 6.94, 6.94, 6.94, 6.94, 6.94, 7.4, 7.4, 7.4, 7.4, 7.4, 7.4, 7.4, 7.4, 7.4, 7.4, 7.87, 7.87, 7.4, 7.06, 6.68, 6.68, 6.68, 6.68, 6.68, 6.71, 6.71, 6.71, 6.68, 6.26, 5.36, 5.36, 5.33, 5.33, 4.88, 4.3, 3.87, 3.98, 3.98, 3.53, 3.07, 2.23, 1.58, 1.24, 0.65, -0.0, -0.0, -0.63, -1.58, -1.6, -1.86, -1.86, -1.74, -1.9, -2.0, -0.0, 2.21, 3.6, 5.75, 8.01, 11.62, 14.75, 16.99, 15.2, 5.32, 0.8, 0.57, -0.0, -0.0, 0.67, 2.29, 2.29, 3.11, 3.11, 3.11, 7.51, 7.51, 7.51, 7.51, 7.09, 7.21, 7.21, 6.79, 6.79, 6.79, 6.94, 6.94, 6.94, 6.94, 6.94, 6.94, 6.94, 6.94, 6.94, 6.94, 6.94, 6.94, 6.94, 7.37, 6.94, 6.94, 6.94, 6.94, 6.94, 6.94, 7.4, 7.4, 7.4, 7.4, 7.4, 7.4, 7.4, 7.4, 7.4, 7.87, 7.84, 7.4, 7.06, 6.6, 6.23, 6.23, 6.68, 6.68, 6.68, 6.23, 6.23, 6.68, 5.78, 5.36, 5.36, 5.36, 4.89, 4.44, 3.98, 3.98, 4.02, 4.02, 3.53, 2.6, 2.12, 1.26, 0.8, 0.57, 0.57, -0.0, -0.8, -1.2, -2.12, -2.12, -2.12, -1.6, -2.0, -1.26, -0.0, 2.4, 3.47, 5.75, 8.05, 11.18, 14.75, 16.54, 15.65, 11.62, 6.26, 3.53, 1.84, 0.67, 0.69, 2.12, 3.2, 3.79, 3.79, 3.79, 7.51, 7.51, 7.51, 7.51, 7.01, 7.01, 7.21, 6.79, 6.79, 6.79, 6.94, 6.94, 6.94, 6.94, 6.94, 6.94, 6.94, 6.51, 6.94, 6.94, 6.94, 6.94, 6.94, 6.94, 6.94, 6.94, 6.94, 6.94, 6.94, 6.94, 6.94, 6.94, 6.94, 6.94, 7.4, 6.94, 6.94, 6.97, 7.4, 7.84, 7.84, 7.4, 6.94, 6.6, 6.23, 6.23, 6.68, 6.68, 6.68, 6.23, 6.23, 6.23, 5.78, 5.36, 4.92, 4.92, 4.92, 4.47, 3.98, 4.02, 4.02, 3.58, 3.07, 2.6, 2.17, 1.6, 0.95, 0.95, 0.95, -0.0, -0.0, -0.63, -1.2, -3.39, -2.12, -1.7, -1.2, -0.0, 1.26, 2.0, 3.9, 5.81, 8.05, 10.73, 14.28, 16.92, 15.12, 11.98, 9.29, 6.58, 3.07, 1.27, 0.67, 2.04, 3.32, 4.07, 4.07, 4.07, 7.51, 7.51, 7.51, 7.09, 7.01, 7.01, 6.79, 6.79, 6.79, 6.79, 6.79, 6.94, 6.94, 6.94, 6.94, 6.94, 6.51, 6.51, 6.51, 6.94, 6.94, 6.94, 6.94, 6.94, 6.94, 6.94, 6.94, 6.94, 6.94, 6.94, 6.94, 6.94, 6.94, 6.94, 6.94, 6.94, 6.94, 6.94, 7.4, 7.84, 7.84, 7.4, 6.51, 6.16, 6.16, 6.16, 6.16, 6.16, 6.16, 6.16, 6.6, 6.16, 5.34, 4.92, 4.92, 4.92, 4.47, 4.02, 4.02, 4.02, 4.02, 3.58, 3.13, 2.68, 2.24, 1.79, 1.34, 0.89, 0.89, -0.0, -0.0, -0.0, -0.6, -2.8, -2.97, -2.23, -0.95, -0.0, 1.0, 1.9, 3.6, 5.75, 7.55, 9.81, 12.86, 16.25, 16.53, 13.78, 11.23, 8.63, 4.0, 1.84, 1.13, 1.33, 1.84, 2.84, 2.84, 2.84, 7.51, 7.51, 7.51, 7.09, 7.01, 7.01, 6.79, 6.79, 6.79, 6.79, 6.79, 6.94, 6.94, 6.94, 6.94, 6.94, 6.51, 6.51, 6.51, 6.94, 6.94, 6.94, 6.94, 6.94, 6.94, 6.94, 6.94, 6.94, 6.94, 6.94, 6.94, 6.94, 6.94, 6.94, 6.94, 6.94, 6.94, 6.94, 7.4, 7.84, 7.84, 7.4, 6.51, 6.16, 6.16, 6.16, 6.16, 6.16, 6.16, 6.16, 6.6, 6.16, 5.34, 4.92, 4.92, 4.92, 4.47, 4.02, 4.02, 4.02, 4.02, 3.58, 3.13, 2.68, 2.24, 1.79, 1.34, 0.89, 0.89, -0.0, -0.0, -0.0, -0.6, -2.8, -2.97, -2.23, -0.0, -0.0, 1.0, 1.9, 3.6, 5.09, 6.98, 8.8, 11.84, 13.96, 16.33, 15.61, 13.99, 10.95, 7.06, 3.07, 1.61, 1.9, 2.23, 2.4, 2.4, 2.4]}, {"header": {"dx": 0.06612293990616946, "dy": 0.0552356325346848, "nx": 98, "ny": 59, "la1": 35.046912555036876, "la2": 31.78801023549047, "lo1": -121.43107172385933, "lo2": -114.95102361305473, "refTime": "2026041212", "parameterCategory": 1, "parameterNumber": 3}, "data": [0.0, 0.0, -0.58, -0.55, -0.59, -0.56, -0.61, -0.56, -0.59, -0.58, -0.57, -1.14, -0.74, -0.66, -0.79, -0.73, -0.89, 0.0, 2.6, 3.79, 4.09, 4.4, 2.8, 2.8, 2.86, 3.49, 3.84, 3.83, 3.83, 3.74, 3.32, 3.32, 3.07, 1.79, -0.0, 0.0, 0.0, 0.0, 0.0, 1.2, 2.63, 3.07, 4.0, 3.48, 3.22, 3.0, 3.09, 2.99, 3.8, 3.8, 4.71, 4.29, 4.65, 4.95, 4.83, 4.71, 4.6, 4.5, 4.5, 3.88, 3.15, 2.4, 2.21, 2.8, 3.2, 3.79, 3.64, 3.09, 2.99, 2.9, 2.23, 1.58, 0.8, 0.8, 0.76, 0.74, 0.54, 0.63, -0.0, -0.65, -0.65, -1.4, -1.4, -1.6, -2.41, -2.79, -2.86, -2.4, -2.68, -2.86, -4.46, -4.74, -5.06, -4.65, -2.15, -0.63, 0.0, 0.45, 0.0, 0.0, -0.58, -0.58, -0.59, -0.56, -0.61, -0.61, -0.59, -0.58, -0.57, -0.79, -0.76, 0.0, -1.03, -1.18, -0.74, 0.0, 2.4, 4.22, 5.2, 5.7, 5.4, 4.0, 3.07, 3.22, 3.22, 2.8, 2.91, 3.97, 4.87, 4.73, 4.24, 2.17, -0.0, -0.0, 0.0, 0.0, 0.0, 1.26, 3.07, 4.34, 3.16, 3.07, 2.47, 2.4, 2.99, 2.99, 2.99, 3.09, 3.9, 3.72, 3.64, 4.29, 4.29, 4.03, 3.91, 4.0, 3.88, 3.88, 3.09, 2.84, 3.2, 3.74, 3.83, 3.35, 3.11, 2.35, 2.26, 2.18, 1.49, 0.74, 0.0, 0.0, 0.0, 0.76, 1.2, 0.63, -0.0, -0.65, -0.65, -1.4, -1.4, -1.6, -2.41, -2.79, -2.86, -2.4, -2.68, -2.86, -4.46, -4.74, -5.06, -4.65, -2.15, -0.63, 0.0, 0.45, 0.0, 0.0, -0.54, -0.58, -0.55, -0.56, -0.61, -0.61, -0.56, -0.58, -0.57, -0.57, -0.78, 0.0, 0.0, -0.81, -0.83, 0.78, 3.35, 4.8, 4.85, 4.92, 5.7, 6.23, 5.37, 4.19, 2.84, 2.5, 2.68, 3.13, 5.36, 7.11, 7.89, 4.98, 1.7, 0.89, 1.2, 0.6, 0.57, 2.4, 3.53, 3.45, 3.07, 2.47, 1.63, 1.55, 1.55, 1.63, 1.52, 2.11, 2.2, 2.98, 3.22, 3.33, 2.8, 3.0, 3.09, 3.6, 3.06, 3.15, 2.88, 3.45, 4.24, 4.4, 3.84, 2.98, 3.0, 3.09, 3.91, 3.91, 3.8, 2.26, 1.52, 0.0, 0.0, 0.0, 1.49, 0.63, -0.0, -0.0, -0.0, -0.0, -0.61, -0.76, -1.49, -2.0, -2.07, -2.4, -3.13, -4.09, -5.06, -5.43, -4.46, -2.21, -0.63, 0.0, 0.0, 0.0, 0.0, 0.0, 0.0, -0.58, -0.55, -0.56, -0.61, -0.61, -0.56, -0.58, -0.57, -1.2, -0.74, 0.0, 0.0, 0.0, -0.83, 0.82, 3.48, 4.66, 4.85, 4.02, 2.24, 4.66, 5.43, 4.43, 3.79, 2.53, 2.24, 2.4, 3.74, 6.21, 8.01, 8.79, 6.4, 3.35, 2.98, 2.21, 1.2, 3.04, 3.74, 3.49, 2.53, 1.6, 0.82, 0.82, 0.0, 0.73, 1.66, 1.49, 2.07, 2.2, 2.4, 3.11, 3.11, 3.2, 3.09, 2.99, 2.23, 2.26, 2.84, 3.97, 4.66, 3.84, 4.11, 4.65, 5.3, 6.28, 7.59, 8.22, 7.82, 6.88, 5.38, 3.26, 0.54, 0.0, 1.2, 1.26, -0.0, -0.0, -0.0, -0.0, -0.0, -0.0, -0.0, -0.0, -0.65, -2.6, -3.51, -5.09, -4.74, -2.53, -1.26, 0.0, 0.0, 0.0, 0.0, -0.6, 0.0, 0.0, 0.0, -0.58, -0.55, -0.56, -0.56, -0.56, -0.56, -0.58, -0.57, -0.61, -0.74, 0.0, 0.0, 0.0, -0.74, 0.76, 3.22, 4.41, 4.92, 4.92, 3.58, 2.68, 2.4, 3.93, 4.11, 3.16, 2.6, 2.6, 2.21, 2.5, 4.41, 6.28, 6.52, 5.69, 4.43, 3.22, 1.2, 2.68, 3.95, 4.46, 4.01, 2.88, 2.2, 1.33, 0.76, 0.65, 0.65, 1.6, 2.15, 2.53, 2.98, 2.88, 3.79, 3.91, 2.99, 2.31, 2.31, 2.11, 2.8, 3.97, 4.24, 4.46, 6.44, 8.3, 8.93, 9.67, 10.9, 10.9, 10.18, 9.17, 8.19, 7.18, 2.8, 0.61, -0.0, -0.0, 0.54, -0.0, -0.0, -0.0, -0.0, -0.0, -0.0, -0.53, -1.2, -2.6, -3.45, -4.46, -2.15, -0.8, 0.0, 0.32, 0.0, 0.0, -0.57, -0.99, 0.0, 0.0, 0.0, -0.58, -0.55, -0.56, -0.56, -0.56, -0.56, -0.58, -0.57, -0.61, -0.74, 0.0, 0.0, 0.0, 0.0, 0.88, 3.6, 4.02, 4.38, 4.38, 4.92, 4.92, 3.39, 4.65, 4.43, 5.01, 5.81, 5.7, 1.79, 1.24, 0.95, 1.9, 2.53, 4.01, 3.9, 3.4, 1.2, 2.12, 3.13, 4.98, 5.09, 5.37, 5.06, 4.43, 2.3, 1.2, 1.24, 1.4, 2.79, 2.98, 3.22, 3.11, 2.35, 2.31, 2.31, 1.49, 1.55, 1.66, 3.04, 3.13, 4.24, 6.54, 9.08, 10.8, 10.28, 9.9, 9.3, 9.62, 8.16, 7.36, 7.08, 6.71, 5.37, 1.26, -0.0, -0.0, 0.61, -0.0, -0.0, -0.0, -0.0, -0.0, -0.53, -1.26, -2.17, -2.5, -3.49, -2.84, -1.58, 0.0, 0.0, -0.0, -0.0, -0.95, -1.9, -1.58, 0.0, 0.0, 0.0, 0.0, -0.55, -0.56, -0.56, -0.56, -0.59, -0.58, -0.57, -0.57, 0.0, 0.0, 0.0, 0.0, 0.0, 0.88, 3.22, 3.58, 2.53, 1.8, 1.24, 2.54, 3.82, 3.48, 3.48, 4.8, 5.81, 5.21, 4.8, 2.54, 2.24, 1.9, 2.53, 3.83, 4.11, 4.46, 2.23, 2.24, 2.24, 4.77, 5.75, 6.28, 6.52, 5.3, 5.37, 3.79, 2.15, 3.49, 4.74, 2.53, 2.29, 1.52, 0.74, 0.0, 0.0, 0.0, 0.0, 1.24, 2.68, 3.13, 4.24, 7.28, 8.4, 9.27, 8.94, 6.95, 5.94, 5.38, 3.88, 3.15, 2.66, 2.31, 3.15, 1.16, -0.0, 0.61, 0.7, -0.0, -0.59, -1.13, -1.16, -1.2, -1.86, -2.24, -2.6, -2.5, -2.53, -2.4, -1.34, 0.0, -0.0, -0.0, -0.89, -1.58, -2.5, -2.4, 0.0, 0.0, 0.0, 0.0, 0.0, -0.59, -0.56, -0.56, -0.59, -0.58, -0.57, -0.57, 0.0, 0.0, 0.0, -0.7, 0.0, 0.0, 2.15, 2.54, 1.58, 0.76, -0.0, -0.0, 0.0, 0.0, 2.53, 4.77, 5.7, 5.01, 5.2, 5.2, 4.77, 4.09, 3.45, 3.2, 2.41, 2.47, 3.22, 2.6, 1.79, 3.39, 4.09, 4.43, 4.74, 6.01, 7.06, 7.06, 6.7, 6.52, 2.21, 0.61, 0.7, 0.0, 0.0, -0.78, -1.41, -0.61, 0.0, 1.34, 2.24, 3.51, 3.97, 6.51, 6.0, 6.08, 6.24, 3.91, 1.45, 0.0, 0.0, 0.0, -0.72, -0.78, 0.0, 0.0, 0.0, 0.89, 1.26, -0.0, -1.24, -1.61, -1.88, -1.9, -1.86, -1.79, -1.7, -1.26, -1.2, -1.34, -0.0, 0.4, 0.6, -0.0, -1.34, -2.5, -2.53, -2.4, 0.0, 0.0, 0.0, -0.58, -0.55, -0.59, -0.56, -0.56, -0.59, -1.16, -1.14, -1.14, -1.1, -0.83, -0.78, 0.0, 0.0, 0.0, 0.88, 1.74, 2.24, 1.9, 0.71, -0.0, 0.0, 0.0, 2.8, 4.02, 4.8, 4.65, 4.24, 4.02, 3.82, 3.35, 3.22, 1.74, 0.0, 0.0, 0.85, 2.21, 3.82, 3.82, 3.72, 3.79, 3.76, 6.4, 8.79, 9.48, 9.92, 8.3, 6.01, 2.15, 0.7, 0.0, -0.76, -2.11, -3.07, -1.9, -0.63, 1.34, 4.85, 6.98, 4.87, 5.59, 4.46, 3.72, 3.27, 1.44, -1.45, -3.09, -3.0, -2.8, -2.8, -2.8, -2.66, -1.41, -0.7, 0.0, 0.0, 0.0, -0.63, -1.61, -1.61, -1.24, -1.2, -0.89, 0.0, 0.0, 0.0, -0.45, 0.0, 1.27, 1.26, -0.63, -1.86, -2.53, -2.21, -2.12, 0.0, -0.58, -0.58, -0.55, -0.55, -0.59, -0.56, -1.1, -1.18, -1.16, -1.14, -1.14, -1.67, -1.78, -0.83, -0.76, -0.81, -0.81, 0.0, 2.48, 3.82, 3.58, 3.13, 1.26, 0.0, 1.9, 3.2, 3.39, 3.72, 3.79, 3.82, 2.24, 0.0, 0.0, 1.9, 1.27, 0.0, 1.26, 3.2, 4.24, 3.47, 3.6, 3.16, 2.53, 4.19, 6.7, 7.21, 6.44, 7.35, 7.64, 8.32, 7.69, 5.46, 2.84, 1.88, 1.4, 0.0, -2.24, -1.34, 2.24, 9.36, 10.93, 10.04, 6.94, 6.07, 4.01, 2.9, 2.18, -1.23, -5.46, -5.09, -4.75, -4.02, -3.38, -2.79, -1.61, -1.24, -1.24, -0.57, -0.57, 0.0, 0.0, -0.45, 0.0, 0.0, 0.6, 0.8, 0.6, 0.0, -0.45, 0.0, 1.34, 1.2, 0.0, -1.26, -1.88, -1.9, -1.7, 0.0, -0.58, -0.58, -0.55, -0.59, -0.59, -1.1, -1.1, -1.18, -1.16, -1.14, -1.12, -1.75, -1.75, -1.65, -1.52, -1.72, -1.73, -0.61, 1.73, 2.98, 2.54, 2.0, 1.34, 0.0, 0.0, 1.26, 2.4, 2.53, 2.48, 2.8, 1.34, 0.0, 0.0, 0.0, 1.6, 3.35, 3.58, 3.9, 4.15, 3.2, 2.98, 2.53, 3.72, 5.64, 5.16, 3.83, 3.84, 3.79, 6.44, 10.68, 13.07, 12.87, 12.58, 11.84, 11.86, 11.18, 1.7, -0.0, 6.21, 12.05, 12.3, 10.75, 9.08, 9.2, 9.45, 9.27, 8.63, 3.45, -0.6, -1.86, -3.45, -4.73, -3.72, -2.15, -1.6, -1.34, -1.34, -1.34, -0.8, 0.0, 1.2, 2.07, 0.61, 1.33, 1.33, 1.16, 0.53, 0.0, -0.45, 0.0, 0.0, 0.45, 0.0, 0.0, -0.54, -1.24, -1.34, -0.58, -0.58, -0.55, -0.55, -0.59, -1.18, -1.1, -1.1, -1.18, -1.16, -1.14, -1.12, -1.75, -1.73, -1.73, -2.28, -1.75, -2.19, -1.71, 0.0, 1.2, 1.26, 0.8, 0.0, 0.0, 0.0, 0.0, 0.54, 0.0, 0.0, 1.4, 0.95, 0.0, 0.0, 0.0, 1.26, 2.8, 3.47, 2.98, 3.22, 3.6, 3.2, 1.26, 4.24, 4.92, 3.95, 5.7, 4.4, 5.26, 7.52, 11.08, 13.21, 15.01, 16.02, 15.57, 15.47, 15.61, 11.5, 4.8, 9.39, 12.96, 12.3, 10.32, 9.83, 12.77, 15.47, 16.71, 16.09, 14.7, 10.68, 7.46, 2.84, 0.0, -2.17, -2.24, -1.34, -0.63, -1.2, -1.34, -0.89, 0.0, 1.58, 2.3, 2.2, 2.66, 2.66, 1.94, 0.59, 0.0, -0.45, -0.0, -0.0, -0.0, 0.0, 0.0, 0.0, -0.89, -1.2, -0.58, -0.58, -0.55, -0.59, -1.18, -1.18, -1.1, -1.1, -1.18, -1.16, -1.14, -1.78, -1.75, -1.73, -1.71, -1.71, -1.71, -2.28, -2.3, -0.56, 0.57, 0.71, 0.0, 0.0, 0.0, 0.0, 0.0, 0.0, 0.0, 0.0, 0.0, 0.0, 0.0, 0.0, 0.95, 1.34, 1.6, 2.4, 2.54, 3.2, 3.6, 3.74, 3.95, 4.02, 4.47, 5.81, 6.71, 7.15, 7.6, 8.05, 8.91, 9.83, 10.73, 11.18, 11.62, 11.12, 11.56, 11.93, 9.3, 10.28, 12.96, 11.66, 9.11, 10.7, 13.86, 15.65, 16.08, 16.37, 15.13, 14.95, 14.49, 11.52, 6.95, 1.88, -0.63, -1.34, -0.45, 0.0, 0.0, -0.95, -0.8, 0.0, 0.59, 0.76, 3.11, 3.79, 2.9, 1.41, 0.61, 0.0, 0.0, -0.0, -0.0, 0.0, -0.45, -0.89, -1.26, -1.24, -0.58, -0.55, -0.55, -1.18, -1.18, -1.18, -1.1, -1.2, -1.1, -1.09, -1.69, -1.78, -1.75, -1.73, -1.63, -1.71, -1.63, -1.73, -2.28, -1.14, 0.0, 0.61, 0.0, 0.0, 0.0, 0.0, 0.0, 0.0, 0.0, 0.0, 0.0, 0.0, 0.0, 1.0, 1.26, 0.95, 1.6, 2.0, 2.54, 2.97, 3.47, 3.58, 4.02, 4.92, 4.92, 5.36, 4.92, 5.81, 6.26, 6.26, 6.71, 6.71, 6.14, 5.26, 4.92, 4.47, 5.81, 8.22, 9.88, 8.94, 11.18, 10.47, 11.12, 12.52, 12.52, 12.52, 12.07, 11.15, 11.13, 8.88, 10.28, 9.85, 6.87, 3.78, 0.0, 0.0, 1.24, 3.07, 2.88, 0.57, -1.34, -1.2, -1.16, -1.35, 0.7, 1.45, 2.23, 1.49, 1.47, 1.13, 0.6, -0.0, -0.0, -0.0, -1.24, -1.9, -1.2, -0.54, -0.58, -0.55, -0.55, -1.18, -1.18, -1.1, -1.1, -1.1, -1.1, -1.61, -1.71, -1.69, -1.67, -1.65, -1.73, -1.71, -1.63, -1.73, -2.28, -1.69, 0.0, 0.0, 0.0, 0.0, 0.0, 0.0, 0.0, 0.0, 0.0, 0.0, 0.0, 0.0, 0.0, 0.0, 0.0, 1.9, 2.8, 2.4, 3.2, 2.4, 2.54, 3.58, 3.58, 3.58, 3.58, 3.58, 4.47, 4.77, 5.2, 4.92, 5.36, 4.92, 4.47, 2.8, 2.24, 2.68, 3.72, 5.3, 8.93, 9.77, 8.94, 8.49, 9.39, 9.77, 9.76, 9.39, 9.39, 7.97, 6.13, 6.28, 5.69, 5.41, 3.07, 0.0, 0.0, 3.79, 6.7, 7.59, 6.97, 4.6, 1.6, 0.0, -0.65, -1.9, -3.32, -0.66, 0.0, 1.49, 2.12, 2.2, 1.33, 0.0, -0.0, -0.0, -0.65, -0.65, -0.0, -0.0, -0.55, -0.55, -0.55, -1.18, -1.18, -1.1, -1.1, -1.1, -1.1, -1.73, -1.71, -1.69, -1.67, -1.75, -1.73, -1.63, -1.73, -1.73, -1.73, -1.67, -0.57, 0.0, 0.0, 0.0, 0.0, 0.0, 0.0, 0.0, -0.57, 0.0, 0.0, 0.0, 0.0, 0.0, 0.0, 0.85, 1.74, 1.49, 1.4, 2.21, 2.54, 2.68, 3.13, 2.68, 2.68, 3.13, 3.39, 3.82, 3.82, 3.6, 3.82, 3.58, 3.13, 2.24, 1.34, 2.4, 3.72, 5.81, 8.17, 7.52, 6.71, 6.71, 6.79, 6.8, 5.81, 6.14, 5.81, 6.14, 6.13, 5.37, 3.0, 0.7, -0.75, -0.73, 2.51, 8.24, 10.28, 10.04, 8.72, 7.13, 6.21, 4.8, 2.4, 0.0, -2.68, -3.58, -1.84, 0.0, 0.0, 0.66, 0.66, -0.0, -0.0, -0.0, -0.6, -0.0, -0.0, -0.0, -0.55, -0.55, -0.55, -1.18, -1.18, -1.1, -1.1, -1.1, -1.18, -1.73, -1.71, -1.69, -1.67, -1.75, -1.73, -1.73, -1.16, -1.1, -1.71, -1.73, -0.59, 0.0, 0.0, 0.0, 0.0, 0.0, 0.0, -0.59, -0.57, -0.61, 0.0, 0.0, 0.0, 0.0, 0.0, 0.87, 0.87, 1.13, 1.2, 1.9, 3.13, 2.68, 3.13, 2.24, 3.13, 3.58, 3.39, 2.8, 1.9, 1.9, -0.0, -0.0, 2.24, 2.24, 2.68, 3.58, 4.34, 4.77, 4.8, 5.2, 5.2, 4.92, 4.09, 3.79, 4.11, 4.22, 4.77, 4.92, 5.75, 4.66, 0.0, -2.15, -2.21, 0.63, 6.07, 9.65, 10.86, 11.08, 9.31, 7.93, 7.58, 6.9, 6.1, 3.51, -0.63, -1.9, -2.6, -0.57, 0.0, 0.0, 0.61, 0.0, 0.0, -0.45, -0.63, 0.0, 0.0, 0.0, -1.09, -1.18, -1.18, -1.18, -1.1, -1.1, -1.1, -1.1, -1.18, -1.73, -1.71, -1.69, -1.78, -1.18, -1.11, -1.16, -1.16, -1.16, -1.15, -1.71, -1.12, 0.0, 0.0, 0.0, 0.0, 0.0, 0.0, -0.59, -0.59, -0.57, 0.0, 0.0, 0.0, 0.0, 0.0, 0.0, 0.79, 1.41, 1.6, 1.9, 2.24, 2.24, 2.24, 2.24, 3.13, 3.13, 2.68, 2.24, 1.79, 1.58, -0.0, -0.0, -0.0, 1.58, 2.24, 2.24, 3.13, 3.2, 3.6, 2.84, 3.82, 3.58, 3.2, 4.09, 4.11, 3.48, 3.22, 2.8, 1.4, 0.0, 0.0, 0.0, 0.74, 3.91, 5.37, 6.01, 6.87, 7.6, 7.15, 7.0, 6.2, 5.2, 4.65, 1.32, -0.45, -0.71, -0.0, -0.0, 0.0, 0.0, 1.2, 1.16, 0.0, -0.57, -0.57, -0.57, -0.6, -0.6, -1.09, -1.18, -1.18, -1.18, -1.1, -1.1, -1.1, -1.1, -1.18, -1.18, -1.71, -1.71, -1.14, -1.12, -1.12, -1.52, -1.12, -1.11, -1.16, -1.15, -1.18, 0.0, 0.0, 0.0, 0.0, 0.0, 0.0, 0.0, -0.76, -0.59, 0.0, 0.0, 0.0, 0.0, 0.0, 0.0, 0.0, 0.63, 0.88, 1.13, 0.85, 0.0, 0.0, 1.79, 2.24, 2.24, 2.24, 2.24, 1.79, 2.24, 2.68, 2.68, 2.68, 2.24, 2.24, 2.24, 2.24, 2.8, 2.8, 2.8, 2.4, 2.24, 3.13, 2.23, 3.16, 3.16, 2.53, 1.34, 0.0, 0.0, 0.0, 2.22, 3.17, 3.14, 1.56, 0.0, -0.74, 0.0, 0.75, 2.23, 2.31, 1.5, 0.74, 0.7, 0.0, -0.63, -0.0, 1.2, 0.0, 0.0, 1.26, 1.88, 0.61, -0.65, -0.54, -0.54, -0.65, -0.65, -1.18, -1.18, -1.1, -1.1, -1.1, -1.1, -1.1, -1.1, -1.18, -1.18, -1.71, -1.71, -1.69, -1.12, -1.18, -1.18, -1.11, -1.12, -0.8, -0.8, -0.76, 0.0, 0.59, 0.0, 0.0, 0.0, 0.0, -0.61, -0.61, -0.61, -0.59, 0.0, 0.0, 0.0, 0.0, 0.0, 0.0, 0.0, 0.0, 0.0, 0.0, 0.0, 0.0, 0.95, 0.89, 1.79, 1.79, 1.79, 1.79, 2.24, 2.68, 2.68, 3.13, 2.68, 0.89, 1.34, 2.8, 1.26, 0.6, 1.58, 1.79, 2.24, 3.39, 4.09, 3.58, 3.16, 2.6, 1.79, 0.79, 0.0, 0.78, 1.54, 1.54, 0.0, -3.2, -6.21, -8.01, -7.9, -3.04, -0.75, 0.0, 0.0, 0.0, 0.0, 0.0, 0.0, 0.6, 2.4, 1.24, 0.57, 0.0, 0.0, 0.0, -0.61, -0.54, -0.54, 0.0, 0.0, -1.18, -1.18, -1.1, -1.1, -1.1, -1.1, -1.1, -1.1, -1.1, -1.18, -1.61, -1.71, -1.69, -1.2, -1.12, -1.11, -1.16, -1.65, -1.75, -1.6, -0.79, 0.0, 0.0, 0.59, 0.0, -0.55, -0.63, -0.59, -0.59, -0.61, -0.59, -0.57, 0.0, 0.0, 0.0, 0.0, 0.0, 0.0, 0.0, 0.0, 0.0, 0.0, 0.0, 0.65, 0.8, 2.24, 2.24, 1.79, 1.79, 2.24, 2.68, 2.68, 3.13, 2.68, 2.68, 1.34, 1.49, 1.86, 1.58, 1.34, 2.68, 3.82, 4.34, 3.35, 2.53, 2.53, 2.54, 2.54, 3.48, 2.35, 3.32, 3.19, 3.17, 0.0, -4.58, -8.46, -11.69, -10.9, -8.12, -5.41, -2.25, 0.0, 0.8, 1.36, 0.71, 0.59, 1.2, 1.88, 1.23, 0.59, -0.61, -1.33, -0.63, 0.0, 0.0, 0.0, 0.53, 0.53, -1.18, -1.18, -1.1, -1.2, -1.2, -1.1, -1.1, -1.1, -1.18, -1.73, -1.61, -1.71, -1.69, -1.69, -1.12, -1.18, -1.11, -1.16, -1.73, -1.73, -1.15, -0.58, 0.0, 0.0, 0.0, -0.59, 0.0, 0.0, 0.0, -0.59, -0.59, -0.57, -0.55, 0.0, 0.0, 0.0, 0.54, 0.0, 0.0, 0.0, 0.0, 0.0, 0.0, 0.0, 0.59, 0.65, 1.9, 0.0, 1.79, 1.79, 2.68, 2.68, 2.68, 2.68, 2.68, 3.13, 2.17, 2.4, 2.24, 1.58, 1.86, 2.8, 3.04, 3.04, 2.97, 2.97, 2.97, 3.13, 4.15, 6.13, 8.15, 10.23, 10.81, 5.49, -5.36, -8.97, -11.2, -11.73, -10.65, -8.58, -5.38, -2.17, 0.0, 2.39, 2.97, 2.18, 1.41, 1.27, 0.0, 0.0, -1.35, -1.8, -0.66, 0.0, 0.65, 1.2, 0.7, 0.7, -1.18, -1.18, -1.1, -1.2, -1.2, -1.2, -1.1, -1.1, -1.18, -1.73, -1.61, -1.71, -1.71, -1.69, -1.2, -1.12, -1.11, -1.11, -1.16, -1.16, -1.15, -0.55, 0.0, 0.0, 0.0, 0.0, 0.0, 0.0, 0.0, 0.0, -0.59, -0.57, -0.55, 0.0, 0.0, 0.0, 0.54, 0.59, 0.0, 0.0, 0.0, 0.0, 0.0, 0.0, 0.57, 1.13, 1.13, 0.0, 0.0, 1.58, 2.24, 2.68, 2.68, 3.13, 3.13, 3.58, 2.68, 4.15, 1.7, 0.63, 2.23, 2.8, 3.51, 3.58, 2.24, 3.04, 2.54, 2.54, 3.47, 5.31, 7.6, 9.21, 6.2, 1.19, -3.16, -5.32, -8.24, -10.1, -10.38, -10.38, -7.85, -3.9, -0.69, 0.0, 1.54, 2.28, 2.23, 0.74, 0.0, 0.71, -0.57, -0.71, 0.0, 0.61, 1.16, 0.59, 0.7, 0.7, -1.73, -1.73, -1.18, -1.1, -1.76, -1.76, -1.76, -1.63, -1.73, -1.73, -1.61, -1.71, -1.71, -1.69, -1.69, -1.12, -1.12, -1.11, -0.56, -0.59, -0.59, -0.58, -0.58, 0.0, 0.0, 0.0, 0.0, 0.0, 0.55, 0.63, 0.0, 0.0, 0.0, 0.0, 0.0, 0.0, 0.0, 0.0, 0.0, 0.0, 0.0, 0.0, 0.0, 0.0, 0.55, 0.63, 1.19, 1.27, 1.13, 1.27, 1.6, 2.8, 2.8, 3.13, 3.58, 3.58, 2.68, 4.85, 4.8, 1.2, 1.86, 1.86, 2.12, 1.79, 1.7, 2.24, 1.79, 1.9, 1.9, 2.53, 2.54, 1.14, 2.98, 4.58, 3.14, -2.4, -6.71, -8.67, -9.75, -10.08, -9.15, -6.13, -3.38, -2.06, -0.77, 0.0, 0.0, 0.0, 0.72, 2.8, 1.27, 1.0, 0.0, 0.0, 0.0, 0.0, 0.0, 0.0, -1.73, -1.73, -1.73, -1.63, -1.63, -1.76, -1.76, -1.63, -1.73, -1.73, -1.61, -1.71, -1.71, -1.69, -1.69, -1.2, -1.12, -1.12, -0.59, -0.56, -0.59, -0.59, 0.0, 0.0, 0.0, -0.55, 0.0, 0.0, 0.59, 0.63, 0.63, 0.0, 0.0, 0.0, 0.0, 0.0, 0.0, 0.0, 0.0, 0.0, 0.0, 0.0, 0.0, 0.54, 0.54, 0.61, 1.19, 1.19, 1.19, 1.19, 1.73, 1.08, 2.53, 3.2, 3.2, 3.58, 3.58, 1.79, 4.46, 3.79, 3.82, 2.24, 1.79, 1.79, 0.89, 0.0, 0.95, 2.0, 2.54, 0.89, 0.0, 0.85, 3.25, 7.08, 7.8, 4.58, -0.61, -4.24, -8.24, -8.36, -9.36, -7.92, -5.86, -4.67, -3.09, -1.55, -0.74, 0.0, 1.27, 3.15, 4.46, 3.6, 0.72, 0.0, -0.76, -0.61, 0.0, 0.0, -1.73, -1.73, -1.73, -1.73, -1.63, -1.76, -1.76, -1.63, -1.73, -1.73, -1.73, -1.71, -1.71, -1.71, -1.69, -1.14, -1.2, -1.12, -1.12, -0.59, -0.56, -0.56, 0.0, 0.0, 0.0, 0.0, 0.0, 0.0, 0.0, 0.54, 0.63, 0.55, 0.0, 0.0, 0.0, 0.0, 0.0, 0.0, 0.0, 0.0, 0.0, 0.0, 0.58, 0.53, 0.59, 0.59, 0.59, 1.07, 1.73, 1.7, 1.84, 1.88, 1.19, 2.23, 2.84, 3.82, 4.02, 3.13, 3.82, 5.7, 5.4, 3.2, 2.4, 1.2, 0.95, 0.0, 2.0, 3.95, 3.74, 2.41, 0.81, 1.25, 3.85, 6.69, 8.51, 11.02, 6.14, -2.21, -4.02, -5.36, -8.05, -8.02, -6.64, -5.01, -3.43, -1.55, -0.7, 0.0, 0.59, 1.33, 1.41, 4.05, 2.82, 0.64, -0.54, -0.6, 0.0, 0.0, -1.73, -1.73, -1.73, -1.73, -1.63, -1.63, -1.76, -1.63, -1.73, -1.73, -1.73, -1.71, -1.71, -1.71, -1.69, -1.14, -1.14, -1.12, -1.12, -1.12, -0.56, -0.59, 0.0, 0.0, 0.0, 0.0, 0.0, 0.0, 0.0, 0.0, 0.54, 0.61, 1.23, 0.54, 0.0, 0.0, 0.0, 0.0, 0.0, 0.0, 0.0, 0.0, 0.0, 0.58, 0.58, 0.58, 0.59, 0.54, 1.19, 1.19, 1.7, 1.7, 1.19, 1.76, 2.68, 3.6, 4.24, 3.2, 3.13, 4.92, 5.7, 4.81, 3.16, 1.24, 3.2, 3.13, 5.29, 4.47, 4.22, 3.22, 2.47, 1.63, 1.52, 4.01, 7.01, 8.86, 9.31, 1.3, -3.13, -3.13, -4.02, -7.15, -6.22, -4.73, -3.72, -2.86, -2.11, -0.63, 0.0, 0.61, 0.61, 0.67, 3.02, 2.23, 1.13, 0.0, 0.0, 0.0, -1.71, -1.71, -1.73, -1.73, -1.73, -1.63, -1.63, -1.73, -1.73, -1.73, -1.73, -1.73, -1.71, -1.71, -1.71, -1.69, -1.14, -1.2, -1.12, -1.12, -0.56, -0.56, -0.59, 0.0, 0.0, 0.0, 0.0, 0.0, 0.0, 0.0, 0.0, 0.61, 1.19, 0.61, 0.59, 0.0, 0.0, 0.0, 0.0, 0.0, 0.0, 0.0, 0.0, 0.0, 0.0, 0.0, 0.59, 0.54, 1.19, 1.19, 1.16, 1.16, 1.16, 1.08, 2.23, 3.22, 4.09, 3.82, 4.02, 4.47, 4.15, 3.35, 3.35, 3.84, 5.09, 7.06, 4.92, 0.89, 1.0, 1.55, 1.63, 0.0, 0.0, 0.0, 1.54, 2.28, 1.58, 3.07, -0.61, -1.79, -2.17, -5.99, -6.47, -4.43, -5.16, -5.05, -3.43, -1.33, 0.0, 0.0, 0.0, 0.0, 1.6, 2.63, 3.33, 2.11, 1.13, 1.13, -1.71, -1.71, -1.61, -1.73, -1.73, -1.73, -1.73, -1.73, -1.73, -1.73, -1.73, -1.73, -1.71, -1.71, -1.71, -1.81, -1.69, -1.14, -1.2, -1.12, -1.12, -0.56, -0.56, -0.59, 0.0, 0.0, 0.0, 0.0, 0.0, 0.0, 0.0, 0.57, 0.57, 1.07, 0.59, 0.0, 0.0, 0.0, 0.0, 0.0, 0.0, 0.0, 0.0, 0.0, 0.0, 0.59, 0.59, 1.16, 1.7, 1.19, 1.16, 1.16, 1.16, 1.19, 1.76, 2.51, 3.79, 4.8, 4.47, 3.58, 3.22, 3.07, 4.8, 5.75, 6.28, 6.21, 4.66, 0.89, -0.89, -0.99, 0.78, 1.65, 0.0, -1.72, -4.0, -3.91, -3.04, 0.0, 1.55, 0.0, -1.49, -5.2, -4.55, -4.27, -3.07, -3.07, -2.6, -2.0, -1.24, 0.0, 0.53, 1.33, 2.54, 2.75, 3.51, 4.28, 3.51, 3.51, -1.71, -1.71, -1.61, -1.73, -1.73, -1.73, -1.73, -1.73, -1.73, -1.73, -1.73, -1.73, -1.73, -1.71, -1.71, -1.71, -1.81, -1.14, -1.14, -1.2, -1.12, -0.56, -0.56, -0.56, -0.56, -0.56, 0.0, 0.0, 0.0, 0.0, 0.0, 0.0, 0.55, 0.58, 1.16, 0.58, 0.0, 0.0, 0.0, 0.0, 0.0, 0.0, 0.0, 0.0, 0.58, 1.6, 1.7, 1.73, 1.7, 1.67, 1.8, 1.8, 1.16, 1.19, 1.73, 2.22, 3.15, 4.0, 4.22, 3.2, 2.84, 4.22, 5.59, 4.66, 5.75, 6.21, 7.21, 4.65, 0.0, -1.6, 1.8, 4.83, 4.07, 0.77, -3.7, -6.97, -6.33, -4.01, 0.0, 0.76, -0.74, -4.92, -4.32, -3.0, -2.4, -1.9, -2.0, -1.26, 0.0, 0.65, 2.79, 3.9, 5.04, 3.8, 4.28, 4.4, 4.87, 4.87, -1.71, -1.71, -1.71, -1.71, -1.71, -1.73, -1.73, -1.73, -1.73, -1.73, -1.73, -1.73, -1.73, -1.71, -1.71, -1.71, -1.71, -1.81, -1.14, -1.14, -1.14, -1.14, -1.2, -0.56, -0.56, -0.56, -0.56, 0.0, 0.0, 0.0, 0.0, 0.0, 0.0, 0.61, 0.58, 0.53, 0.57, 0.56, 0.0, 0.0, 0.54, 0.58, 0.55, 0.56, 0.61, 1.63, 1.52, 2.32, 2.32, 2.29, 1.76, 1.73, 1.76, 1.7, 1.88, 2.2, 2.86, 3.48, 4.0, 3.48, 3.83, 4.66, 4.66, 3.6, 3.58, 4.38, 5.81, 6.8, 4.43, 1.4, 2.6, 4.74, 4.92, 5.55, 2.28, -4.5, -7.64, -7.02, -5.28, -2.23, -1.41, -2.81, -3.61, -1.73, -0.61, -0.59, -0.56, 0.0, 1.32, 2.9, 4.22, 4.87, 5.04, 4.87, 4.31, 4.31, 4.31, 4.31, -2.23, -2.23, -2.23, -1.71, -1.71, -2.23, -2.26, -2.26, -2.26, -2.26, -2.26, -1.73, -1.73, -1.73, -1.71, -1.71, -1.71, -1.71, -1.22, -1.14, -1.14, -1.14, -1.14, -1.14, -0.56, -0.56, -0.56, -0.57, 0.0, 0.0, 0.0, 0.0, 0.0, 0.0, 0.58, 0.58, 0.58, 0.57, 0.56, 0.55, 0.58, 0.58, 0.54, 0.58, 1.09, 1.18, 1.76, 2.29, 2.29, 1.76, 1.73, 1.84, 2.4, 2.26, 1.8, 2.4, 2.4, 2.86, 3.79, 4.07, 4.22, 3.74, 1.86, 2.23, 2.68, 3.47, 2.54, 4.77, 5.06, 4.19, 1.74, 0.88, 1.1, 3.34, 5.51, 1.53, -3.45, -5.81, -7.03, -5.77, -2.84, -1.43, 0.0, 0.0, 0.0, 0.57, 1.21, 2.4, 3.07, 3.44, 4.22, 4.29, 4.22, 4.2, 5.09, 4.31, 4.31, 4.31, -2.23, -2.23, -2.23, -2.23, -2.23, -2.23, -2.4, -2.4, -2.75, -2.26, -2.26, -2.26, -1.73, -1.73, -1.73, -1.71, -1.71, -1.71, -1.16, -1.16, -1.14, -1.14, -1.14, -1.14, -1.14, -0.61, -0.61, -0.56, -0.57, 0.0, 0.0, 0.0, 0.0, 0.0, 0.0, 0.58, 0.58, 0.57, 0.61, 0.56, 0.0, 0.58, 0.58, 0.58, 1.16, 1.18, 1.63, 1.76, 1.76, 1.76, 1.73, 1.73, 1.71, 1.71, 1.76, 1.67, 1.7, 2.84, 3.49, 4.07, 4.0, 2.6, 3.72, 2.6, 3.13, 3.58, 2.68, 2.54, 2.2, 2.49, 1.7, 0.0, -0.82, 0.0, 2.37, 4.7, 0.0, -4.46, -5.32, -6.28, -3.6, -0.7, 1.27, 1.88, 1.25, 0.6, 1.17, 1.73, 2.34, 2.9, 3.79, 3.48, 2.88, 2.9, 2.83, 3.78, 3.44, 3.44, -2.23, -2.23, -2.23, -2.23, -2.23, -2.73, -2.73, -2.92, -3.4, -2.75, -2.96, -2.96, -2.29, -2.26, -1.73, -1.73, -1.73, -1.71, -1.71, -1.16, -1.16, -1.14, -1.14, -1.14, -1.14, -1.14, -0.57, -0.57, -0.56, -0.56, 0.0, 0.0, -0.56, 0.0, 0.0, 0.53, 0.58, 0.58, 0.57, 0.0, 0.0, 0.0, 0.0, 0.58, 1.16, 1.09, 1.73, 1.76, 1.76, 1.76, 1.76, 1.73, 1.73, 1.71, 1.73, 1.12, 1.7, 2.4, 3.49, 4.07, 4.29, 4.09, 4.09, 4.77, 4.47, 3.95, 2.6, 1.98, 1.19, 1.23, 2.29, 2.4, 0.0, 0.0, 0.0, 4.7, 4.55, -0.6, -4.92, -6.35, -4.96, -0.7, 1.9, 2.4, 1.33, 0.0, 0.0, 0.58, 1.44, 2.51, 2.68, 2.23, 2.15, 1.41, 1.32, 2.83, 2.75, 2.75, -2.89, -2.89, -2.89, -2.89, -2.89, -2.89, -2.89, -3.4, -3.4, -3.64, -3.42, -3.42, -2.77, -2.77, -2.8, -1.63, -1.73, -1.73, -1.61, -1.71, -1.16, -1.16, -1.16, -1.14, -1.14, -1.14, -1.14, -1.14, -0.57, -0.56, -0.56, -0.56, -0.59, -0.56, 0.0, 0.0, 0.58, 0.58, 0.58, 0.0, 0.0, 0.0, 0.0, 0.0, 0.58, 1.09, 1.18, 1.2, 1.2, 1.2, 1.76, 1.76, 1.73, 1.73, 1.73, 1.2, 1.14, 2.4, 3.49, 4.65, 4.07, 4.65, 4.4, 5.2, 5.2, 3.82, 1.26, 0.87, 0.73, 3.22, 5.46, 6.7, 4.71, 2.44, 0.75, 3.07, 6.14, 4.71, 0.0, -3.91, -5.06, 0.0, 1.79, 1.58, 1.27, 0.62, 0.61, 1.27, 1.61, 2.21, 2.15, 1.58, 0.71, 0.7, 0.66, 0.7, 2.12, 2.12, -2.89, -2.89, -2.89, -2.89, -2.89, -2.89, -2.89, -3.4, -3.4, -4.08, -3.84, -3.85, -3.45, -3.47, -2.82, -2.32, -1.63, -1.73, -1.73, -1.61, -1.71, -1.16, -1.16, -1.16, -1.07, -1.14, -1.14, -0.57, -1.14, -0.57, -0.56, -0.56, -0.56, -0.59, -0.57, 0.0, 0.0, 0.53, 0.0, 0.0, 0.0, 0.0, 0.0, 0.0, 0.55, 0.59, 1.18, 1.1, 1.2, 1.12, 1.12, 1.12, 1.2, 1.18, 1.18, 1.2, 1.14, 2.4, 3.49, 4.41, 4.11, 4.07, 4.8, 3.95, 2.12, 2.84, 0.57, 0.0, 2.53, 6.07, 7.74, 7.07, 6.98, 3.85, 1.5, 0.74, 3.07, 6.28, 5.51, 1.42, -1.36, 0.0, 0.45, 0.57, 0.61, 1.16, 1.9, 2.0, 1.58, 1.61, 1.2, 1.2, 0.71, 0.71, 0.61, 0.66, 1.35, 1.35, -2.89, -2.89, -2.89, -2.71, -2.71, -2.89, -2.89, -2.89, -2.92, -3.64, -3.85, -4.12, -3.49, -2.84, -2.84, -2.36, -1.76, -1.73, -1.73, -1.18, -1.18, -1.09, -1.16, -1.16, -1.16, -1.07, -1.14, -1.14, -1.14, -1.14, -0.57, -0.56, -0.56, -0.59, -0.56, -0.58, 0.0, 0.0, 0.0, 0.0, 0.0, 0.0, 0.0, 0.0, 0.0, 0.56, 0.56, 0.56, 0.61, 0.57, 0.57, 0.57, 0.57, 0.61, 1.1, 1.2, 1.23, 2.18, 4.41, 4.07, 3.79, 3.79, 4.8, 3.2, 1.86, 2.23, 0.87, 2.6, 5.36, 6.71, 6.51, 6.08, 5.72, 5.4, 3.85, 0.8, 0.0, 0.0, 0.77, 2.15, 1.36, 0.54, 0.0, 0.0, 0.57, 1.61, 2.15, 1.86, 1.24, 1.0, 1.2, 0.54, 0.71, 0.0, 0.0, 0.0, 0.0, 0.7, -2.89, -2.89, -2.71, -2.86, -2.86, -2.86, -2.89, -2.89, -2.37, -2.4, -3.0, -2.32, -2.84, -2.44, -2.44, -1.88, -1.67, -1.76, -1.63, -1.18, -1.18, -1.18, -1.09, -1.16, -1.16, -1.16, -1.07, -1.14, -1.14, -0.57, -0.57, -0.57, -0.56, -0.59, -1.12, -0.57, -0.56, 0.0, 0.0, 0.0, 0.0, 0.0, 0.0, 0.0, 0.0, 0.0, 0.0, 0.0, 0.0, 0.0, 0.0, 0.0, 0.57, 0.57, 1.2, 1.76, 1.76, 2.32, 4.11, 3.79, 3.49, 3.79, 3.79, 2.23, 1.49, 2.48, 4.09, 5.36, 6.26, 5.81, 5.59, 5.75, 5.72, 6.09, 6.79, 4.58, -0.72, -3.88, -4.86, -2.12, 0.68, 1.16, 0.0, 0.0, 0.63, 1.26, 1.58, 1.58, 1.24, 0.54, 0.54, 0.54, 0.0, 0.0, 0.0, -0.65, -0.7, 0.0, -2.89, -2.89, -2.71, -2.33, -2.33, -2.33, -2.33, -2.33, -2.21, -1.69, -1.2, -1.16, -1.14, -1.23, -1.11, -1.73, -1.84, -1.8, -1.76, -1.63, -1.18, -1.18, -1.18, -1.09, -1.09, -1.16, -1.16, -1.14, -0.57, -0.57, -0.57, -0.57, -0.56, -0.56, -1.18, -1.12, -0.58, 0.0, 0.0, 0.0, 0.0, 0.0, 0.0, 0.0, 0.0, 0.0, 0.0, 0.0, 0.0, 0.0, 0.0, 0.58, 0.58, 0.57, 1.12, 1.76, 1.73, 3.04, 3.76, 4.11, 3.49, 2.86, 3.16, 3.48, 3.72, 3.72, 4.38, 5.36, 5.36, 5.29, 4.66, 4.8, 4.75, 6.69, 9.22, 9.39, 6.31, 0.74, -1.52, -2.6, -1.58, 0.0, 0.0, 0.0, 0.0, 0.63, 0.95, 1.26, 0.57, 0.54, 0.0, 0.0, 0.0, -0.54, -0.71, -1.2, -1.33, -0.7, -2.89, -2.89, -2.71, -2.33, -2.33, -2.33, -1.78, -1.67, -1.67, -1.18, -1.12, -0.56, 0.0, 0.0, 0.0, -1.16, -1.14, -1.8, -1.65, -1.76, -1.1, -1.18, -1.18, -1.18, -1.09, -1.09, -1.16, -1.16, -0.57, -0.57, -0.57, -0.57, -0.57, -0.56, -0.56, -1.12, -1.14, -0.56, 0.0, 0.0, 0.0, 0.0, -0.57, -0.57, -0.61, 0.0, 0.0, 0.0, 0.0, 0.0, 0.58, 0.58, 0.58, 0.57, 1.12, 1.63, 1.73, 3.0, 3.47, 3.49, 3.12, 3.15, 3.79, 3.72, 3.72, 4.09, 3.95, 4.92, 4.92, 5.29, 4.66, 4.22, 4.11, 4.75, 7.27, 10.17, 11.73, 11.02, 7.71, 3.2, 0.0, -0.63, -1.2, -0.63, -0.0, 0.0, 0.0, 0.6, 0.0, 0.0, -0.54, -1.2, -1.4, -1.49, -1.74, -1.9, -1.88, -1.88, -2.89, -2.89, -2.89, -2.21, -2.33, -2.33, -1.67, -1.67, -1.67, -1.18, -1.18, -0.56, 0.0, 0.0, 0.0, -0.58, -1.12, -1.12, -1.12, -1.2, -1.2, -1.1, -1.18, -1.18, -1.09, -1.09, -1.16, -1.16, -0.54, -0.57, -0.57, -1.14, -1.14, -0.56, -0.56, -1.12, -1.12, -1.16, 0.0, 0.0, 0.0, 0.0, -0.62, -1.12, -1.2, -1.18, -0.59, 0.0, 0.0, 0.0, 0.0, 0.57, 0.57, 0.57, 0.61, 1.1, 2.29, 2.77, 2.8, 3.47, 2.84, 2.86, 3.16, 3.16, 3.72, 4.4, 5.2, 4.92, 4.47, 4.41, 4.15, 3.83, 4.11, 4.81, 6.28, 6.69, 9.22, 11.28, 12.09, 11.02, 8.51, 4.22, 0.0, -1.24, -0.0, -0.0, 0.0, 0.0, -0.54, -1.2, -1.61, -1.88, -2.21, -2.5, -1.86, -1.26, -1.26, -1.26, -2.89, -2.89, -2.89, -2.21, -2.21, -2.33, -1.78, -1.78, -1.67, -1.12, -1.12, -0.56, 0.0, 0.0, 0.0, -0.56, -1.1, -1.2, -1.2, -1.2, -1.2, -1.2, -1.1, -1.18, -1.09, -1.09, -1.09, -1.16, -1.16, -1.14, -1.14, -1.14, -1.14, -1.14, -0.56, -1.12, -1.12, -1.14, -0.56, 0.0, 0.0, 0.0, -0.58, -1.12, -1.76, -1.63, -1.18, -0.56, -0.56, 0.0, 0.0, 0.0, 0.0, 0.0, 0.56, 0.56, 1.65, 2.49, 3.0, 3.04, 3.08, 2.86, 3.16, 3.48, 4.09, 4.8, 5.2, 5.36, 4.47, 3.95, 3.6, 3.6, 4.8, 4.81, 4.74, 4.83, 5.3, 6.9, 8.62, 11.14, 12.67, 11.57, 5.32, -0.89, -0.0, -0.0, 0.0, -0.57, -1.88, -1.61, -1.88, -1.61, -1.9, -1.26, -0.95, 0.0, 0.0, 0.0, -2.89, -2.89, -2.89, -2.37, -2.21, -2.21, -2.21, -1.69, -1.78, -1.2, -1.2, -0.57, -0.57, -0.54, -0.58, -0.55, -1.18, -1.18, -1.18, -1.1, -1.1, -1.1, -1.1, -1.18, -1.18, -0.55, -1.16, -1.16, -1.16, -1.16, -1.14, -1.14, -1.14, -1.14, -1.14, -1.12, -1.12, -1.12, -1.16, -0.57, 0.0, 0.0, -0.58, -1.12, -1.2, -1.76, -1.76, -1.2, -1.1, -0.56, -0.61, 0.0, 0.0, 0.0, 0.61, 1.12, 1.67, 2.32, 3.0, 2.8, 3.08, 3.15, 3.16, 3.43, 4.8, 4.8, 4.77, 2.24, 2.68, 2.54, 4.24, 4.15, 4.66, 4.11, 3.47, 2.51, 3.06, 3.91, 6.1, 9.49, 11.92, 12.38, 10.99, 2.12, -0.0, -0.0, 0.0, -1.2, -1.9, -1.26, -1.58, -0.63, -0.63, 0.0, 0.0, 0.89, 0.89, 0.89, -2.89, -2.89, -2.89, -2.37, -2.37, -2.37, -2.21, -1.69, -1.69, -1.69, -1.14, -1.14, -1.14, -1.07, -1.16, -1.16, -1.16, -1.09, -1.09, -1.18, -0.59, -0.56, -1.1, -1.1, -1.18, -1.09, -1.16, -1.16, -1.16, -1.16, -1.14, -1.14, -1.14, -1.14, -1.14, -1.12, -1.12, -1.12, -1.14, -1.18, -0.58, 0.0, 0.0, -0.58, -0.57, -1.12, -1.12, -1.12, -1.2, -1.1, -1.2, -0.57, 0.0, 0.0, 0.57, 1.14, 1.26, 1.67, 2.8, 2.8, 3.08, 3.15, 3.16, 4.0, 4.27, 4.4, 4.24, 2.54, 2.54, 2.17, 4.15, 4.15, 3.58, 2.53, 1.7, 1.72, 2.4, 3.88, 6.05, 8.53, 11.06, 11.02, 10.56, 7.93, 0.57, -0.63, -0.63, -0.6, 0.0, 1.58, 1.58, 0.63, -0.0, 0.32, 0.63, 0.63, 0.63, 0.63, -2.89, -2.89, -2.89, -2.37, -2.37, -2.37, -2.37, -2.37, -1.69, -1.69, -1.69, -1.14, -1.14, -1.16, -1.16, -1.16, -1.16, -1.16, -1.09, -1.09, -0.59, -0.59, -0.59, -1.1, -1.18, -1.09, -1.16, -1.16, -1.16, -1.16, -1.16, -1.14, -1.14, -1.14, -1.14, -1.14, -1.12, -1.67, -1.67, -1.14, -0.56, -0.58, 0.0, 0.0, 0.0, -0.58, -0.58, -0.57, -1.12, -1.12, -0.57, -0.58, 0.0, 0.0, 0.58, 0.59, 1.16, 1.84, 2.32, 3.04, 2.84, 2.86, 3.43, 3.72, 4.27, 4.09, 3.82, 3.82, 3.82, 2.6, 3.2, 3.2, 1.8, 0.88, 1.55, 2.76, 4.29, 6.32, 7.35, 7.68, 9.17, 10.21, 11.04, 11.57, 5.0, -1.2, -1.26, -0.0, 0.65, 1.2, 1.2, 0.71, 0.57, 0.57, 0.57, 0.57, 0.57, 0.57, -2.89, -2.89, -2.89, -2.89, -2.37, -2.37, -2.37, -2.37, -1.81, -1.81, -1.81, -1.81, -1.81, -1.16, -1.16, -1.16, -1.16, -1.16, -1.16, -1.09, -1.18, -0.55, -0.59, -1.18, -1.18, -1.18, -1.16, -1.16, -1.16, -1.16, -1.16, -1.14, -1.14, -1.22, -1.14, -1.14, -1.2, -1.67, -1.67, -1.69, -1.16, -0.61, -0.58, 0.0, 0.0, 0.0, -0.53, -0.58, -0.58, -0.58, 0.0, 0.0, 0.0, 0.59, 0.59, 0.59, 1.16, 1.84, 2.32, 2.36, 2.4, 2.86, 3.43, 3.72, 3.88, 4.09, 3.72, 3.82, 3.2, 0.95, 0.63, 1.74, 1.8, 2.41, 4.57, 6.02, 6.4, 7.07, 7.68, 7.02, 7.59, 9.22, 12.02, 14.67, 10.78, -0.0, -1.23, -0.0, 1.16, 1.88, 1.4, 1.2, 0.65, 0.54, 0.54, -0.0, -0.0, -0.0, -2.89, -2.89, -2.89, -2.89, -2.37, -2.37, -2.37, -2.37, -2.23, -1.71, -1.71, -1.71, -1.71, -1.71, -1.16, -1.16, -1.16, -1.16, -1.16, -1.16, -1.18, -1.09, -1.09, -1.18, -1.18, -1.18, -1.09, -1.16, -1.16, -1.16, -1.16, -1.14, -1.14, -1.69, -1.69, -1.69, -1.78, -1.78, -1.78, -1.69, -1.14, -1.09, -0.61, -0.58, -0.59, -0.54, -0.54, -0.59, -0.59, -0.54, 0.0, 0.0, 0.59, 0.59, 0.59, 0.59, 1.16, 2.16, 2.16, 2.36, 2.44, 2.86, 3.14, 3.35, 3.35, 3.22, 3.6, 2.8, 1.26, 0.8, 0.8, 1.79, 3.04, 5.36, 6.71, 7.11, 6.28, 6.4, 6.7, 7.06, 6.64, 7.52, 10.81, 12.77, 13.09, 1.88, -0.0, 0.53, 1.24, 1.24, 1.24, 1.24, 0.54, 0.57, 0.57, -0.0, -0.0, -0.0, -2.89, -2.89, -2.89, -2.89, -2.37, -2.37, -2.37, -2.23, -1.71, -1.71, -1.71, -1.71, -1.71, -1.71, -1.16, -1.16, -1.16, -1.16, -1.16, -1.16, -1.09, -1.09, -1.16, -1.09, -1.18, -1.18, -1.09, -1.16, -1.16, -1.16, -1.16, -1.14, -1.69, -1.81, -1.69, -1.69, -1.78, -1.78, -1.78, -1.69, -1.14, -1.16, -1.18, -0.61, -0.58, -0.53, -1.16, -1.16, -0.59, 0.0, 0.0, 0.53, 0.58, 0.58, 0.58, 1.16, 1.84, 1.67, 2.16, 2.18, 2.44, 3.16, 2.84, 2.84, 3.14, 3.22, 3.2, 2.86, 2.21, 2.84, 2.6, 2.24, 3.83, 6.28, 6.07, 5.81, 6.02, 5.75, 6.4, 6.39, 7.02, 7.27, 7.9, 8.46, 8.8, -1.79, 0.53, 1.26, 1.34, 0.95, 0.0, 0.4, 0.6, 0.6, 0.63, 0.45, 0.45, 0.45, -2.89, -2.89, -2.89, -2.89, -2.37, -2.37, -2.37, -2.23, -1.71, -1.71, -1.71, -1.71, -1.71, -1.71, -1.71, -1.16, -1.16, -1.16, -1.16, -1.16, -1.16, -1.16, -1.09, -1.18, -1.18, -1.18, -1.16, -1.16, -1.16, -1.16, -1.16, -1.22, -1.81, -1.81, -1.69, -1.69, -1.78, -1.78, -1.78, -1.69, -1.14, -1.16, -1.16, -1.18, -0.56, -1.12, -1.12, -1.12, -0.57, 0.0, 0.57, 1.12, 1.12, 0.58, 0.58, 1.14, 1.14, 1.67, 1.84, 2.4, 2.22, 2.51, 2.51, 2.51, 2.51, 2.79, 2.6, 2.53, 3.58, 4.22, 4.22, 3.95, 3.95, 4.8, 5.09, 5.36, 5.31, 5.59, 5.75, 6.44, 6.73, 6.95, 6.42, 5.4, 0.71, 0.0, 1.2, 0.45, 0.0, 0.0, -1.2, -0.63, -0.0, 0.0, 0.45, 0.63, 0.63, 0.63, -2.89, -2.89, -2.89, -2.89, -2.37, -2.37, -2.23, -2.23, -2.23, -1.71, -1.71, -1.71, -1.71, -1.71, -1.71, -1.71, -1.71, -1.16, -1.16, -1.16, -1.16, -1.16, -1.09, -1.18, -1.18, -1.09, -1.71, -1.71, -1.71, -1.16, -1.71, -1.81, -1.81, -1.71, -1.81, -1.69, -1.78, -1.78, -1.78, -1.69, -1.16, -1.16, -0.55, -0.55, -0.55, -0.55, -0.59, -0.59, 0.0, 0.0, 0.56, 1.1, 1.2, 0.58, 0.58, 0.59, 1.14, 1.67, 1.84, 1.73, 2.48, 2.23, 2.23, 1.84, 2.53, 2.79, 2.6, 3.2, 4.15, 4.66, 4.66, 5.36, 5.36, 5.09, 5.09, 4.85, 4.02, 4.41, 4.66, 5.46, 5.77, 6.24, 5.52, 2.34, 1.4, 1.61, 0.63, -0.63, -1.86, -2.21, -1.61, -1.2, 0.0, 0.0, 1.2, 1.86, 1.86, 1.86, -2.89, -2.89, -2.89, -2.89, -2.37, -2.37, -2.23, -2.23, -2.23, -1.71, -1.71, -1.71, -1.71, -1.71, -1.71, -1.71, -1.71, -1.71, -1.71, -1.71, -1.71, -1.16, -1.18, -1.09, -1.16, -1.71, -1.71, -1.71, -1.71, -1.71, -1.71, -1.71, -1.71, -1.71, -1.71, -1.69, -1.69, -1.78, -1.69, -1.69, -1.71, -1.09, -0.59, -0.59, -0.55, -0.58, -0.58, 0.0, 0.0, 0.55, 0.56, 1.1, 0.0, 0.0, 0.0, 0.59, 1.16, 1.14, 1.7, 1.94, 1.8, 1.8, 1.84, 1.84, 2.53, 2.53, 3.07, 3.82, 3.95, 3.95, 4.47, 4.85, 4.85, 4.38, 4.57, 3.51, 3.97, 4.85, 5.43, 4.81, 5.15, 5.59, 5.55, 7.22, 6.07, 1.49, -0.0, -0.0, -0.63, -1.7, -0.95, -0.0, 0.0, 1.2, 2.17, 2.8, 2.8, 2.8, -2.89, -2.89, -2.89, -2.89, -2.37, -2.23, -2.23, -2.23, -1.71, -1.71, -1.71, -1.71, -1.71, -1.71, -1.84, -1.73, -1.73, -1.73, -1.71, -1.71, -1.61, -1.18, -1.18, -1.71, -1.71, -1.71, -1.71, -1.61, -1.71, -1.71, -1.71, -1.71, -1.71, -1.71, -1.71, -1.71, -1.69, -1.14, -1.69, -1.69, -1.71, -1.09, -1.18, -0.59, -0.59, -0.55, 0.0, 0.0, 0.0, 0.0, 0.56, 0.56, 0.0, 0.0, 0.0, 0.59, 1.16, 1.16, 1.19, 1.76, 1.8, 1.8, 1.13, 1.84, 1.88, 2.5, 3.07, 3.39, 3.47, 3.58, 4.15, 3.6, 2.98, 3.47, 3.6, 3.58, 3.32, 4.92, 5.2, 5.21, 4.81, 4.65, 6.33, 8.5, 9.2, 2.4, -0.0, 1.33, 1.13, 0.59, 1.16, 1.7, 1.79, 2.6, 3.07, 3.32, 3.32, 3.32, -2.89, -2.89, -2.89, -2.89, -2.37, -2.23, -2.23, -2.23, -1.84, -1.71, -1.71, -1.71, -1.71, -1.84, -1.73, -1.73, -1.73, -1.73, -1.73, -1.73, -1.18, -1.18, -1.73, -1.71, -1.71, -1.71, -1.73, -1.73, -1.71, -1.71, -1.71, -1.71, -1.71, -1.71, -1.71, -1.71, -1.71, -1.14, -1.14, -1.69, -1.71, -1.16, -1.18, -0.56, -0.56, -0.59, 0.0, 0.0, 0.0, 0.0, 0.0, 0.0, 0.0, 0.0, 0.0, 0.54, 0.59, 1.16, 1.19, 1.76, 1.27, 1.27, 1.13, 1.16, 1.88, 2.15, 2.8, 3.32, 3.58, 3.04, 3.2, 2.6, 1.9, 2.97, 3.2, 2.86, 2.21, 3.47, 3.74, 4.22, 4.19, 4.03, 4.92, 5.38, 6.94, 3.82, 0.0, 0.66, 1.84, 2.23, 2.53, 2.91, 3.13, 3.51, 3.51, 3.32, 3.32, 3.32, -2.89, -2.89, -2.89, -2.89, -2.73, -2.23, -2.23, -2.4, -2.26, -1.84, -1.71, -1.71, -1.71, -1.73, -1.73, -1.73, -1.73, -1.73, -1.73, -1.73, -1.73, -1.73, -1.73, -1.71, -1.71, -1.73, -1.73, -1.73, -1.71, -1.71, -1.71, -1.71, -1.71, -1.71, -1.71, -1.71, -1.71, -1.16, -1.14, -1.69, -1.69, -1.71, -1.18, -0.56, -0.56, -0.56, -0.56, 0.0, 0.0, 0.0, 0.0, 0.0, 0.0, 0.0, 0.0, 0.59, 0.59, 0.54, 1.08, 1.11, 1.11, 0.66, 0.59, 1.16, 1.2, 1.9, 2.4, 3.07, 3.13, 1.79, 2.54, 1.9, 1.9, 1.26, 1.86, 3.6, 2.98, 2.6, 2.68, 2.98, 2.53, 2.47, 2.23, 1.54, 2.32, 2.36, 0.0, -0.6, 0.54, 2.4, 3.53, 4.43, 4.02, 3.82, 3.82, 4.24, 4.24, 4.24, -2.89, -2.89, -2.89, -2.89, -2.73, -2.23, -2.4, -2.26, -2.26, -1.73, -1.71, -1.71, -1.71, -1.73, -1.73, -1.73, -1.73, -1.73, -1.73, -1.73, -1.73, -1.73, -1.71, -1.71, -1.73, -1.73, -1.73, -1.73, -1.73, -1.71, -1.71, -1.71, -1.71, -1.71, -1.71, -1.71, -1.71, -1.71, -1.71, -1.69, -1.69, -1.71, -1.18, -0.56, -0.61, -0.61, -0.56, -0.56, 0.0, 0.0, 0.0, -0.56, 0.0, 0.0, 0.0, 0.59, 0.59, 0.61, 1.23, 1.11, 0.57, 0.57, 0.59, 0.61, 1.49, 1.58, 1.86, 2.6, 2.68, 1.34, 0.63, 1.58, 0.8, 1.24, 1.24, 2.6, 1.9, 1.0, 1.79, 2.21, 1.8, 0.82, 0.8, 0.0, 0.0, 0.0, 0.0, -0.67, -0.4, 1.7, 3.58, 5.36, 5.32, 5.34, 5.34, 5.43, 5.43, 5.43, -2.89, -2.89, -2.89, -2.89, -2.73, -2.4, -2.4, -2.26, -2.26, -2.26, -1.73, -1.73, -1.73, -1.73, -1.73, -1.73, -1.73, -1.73, -1.73, -1.73, -1.73, -1.73, -1.73, -1.84, -1.73, -1.73, -1.73, -1.73, -1.73, -1.73, -1.71, -1.71, -1.71, -1.71, -1.71, -1.71, -1.71, -1.71, -1.71, -1.69, -1.81, -1.71, -1.18, -1.2, -0.57, -0.57, -0.61, -0.56, -0.56, -0.57, -0.57, -0.61, -0.58, 0.0, 0.0, 0.0, 0.54, 0.55, 0.57, 0.57, 0.0, 0.0, 0.59, 0.65, 0.71, 1.26, 1.6, 1.7, 1.7, 1.79, 1.6, 0.6, 0.71, 0.71, 0.71, 0.8, 1.0, 1.26, 1.34, 1.2, 0.87, 0.82, 0.0, 0.0, 0.0, 0.0, 0.0, 0.0, 0.0, 0.59, 3.07, 5.32, 6.22, 6.36, 6.4, 6.07, 6.07, 6.07, -2.89, -2.89, -2.89, -2.89, -2.92, -2.92, -2.4, -2.26, -2.26, -2.26, -1.73, -1.73, -1.73, -1.73, -1.73, -1.73, -1.73, -1.63, -1.73, -1.73, -1.73, -1.73, -1.73, -1.73, -1.73, -1.73, -1.73, -1.73, -1.73, -1.73, -1.73, -1.73, -1.73, -1.73, -1.71, -1.73, -1.73, -1.61, -1.71, -1.81, -1.81, -1.71, -1.73, -1.2, -0.57, -0.57, -0.61, -0.61, -0.61, -0.57, -0.57, -0.57, -0.58, 0.0, 0.0, 0.0, 0.0, 0.0, 0.57, 0.0, 0.0, 0.0, 0.61, 0.65, 0.54, 0.8, 0.95, 0.95, 0.95, 1.34, 1.79, 0.63, 0.6, 1.13, 0.71, 0.57, 0.6, 1.34, 1.26, 1.0, 0.98, 0.0, 0.0, 0.0, 0.79, 1.54, 1.51, 1.5, 1.33, 1.32, 1.84, 3.82, 5.32, 5.44, 5.31, 4.75, 4.75, 4.75, -2.89, -2.89, -2.89, -2.73, -2.92, -2.92, -2.26, -2.26, -2.26, -2.26, -2.26, -1.73, -1.73, -1.73, -1.73, -1.73, -1.63, -1.63, -1.63, -1.73, -1.73, -1.73, -1.73, -1.73, -1.73, -1.73, -1.73, -1.73, -1.73, -1.73, -1.73, -1.73, -1.73, -1.73, -1.73, -1.73, -1.73, -1.73, -1.71, -1.81, -1.81, -1.71, -1.63, -1.12, -1.12, -1.12, -1.12, -1.12, -1.12, -1.12, -1.2, -1.12, -0.53, 0.0, 0.0, 0.0, 0.0, 0.0, 0.0, 0.0, 0.0, 0.0, 0.0, 0.0, 0.0, 0.0, 0.0, 0.0, 0.0, 0.89, 1.34, 1.34, 1.2, 1.4, 0.99, 1.49, 0.95, 1.79, 2.0, 1.9, 1.8, 0.82, 0.84, 0.75, 1.61, 3.09, 3.93, 3.83, 2.99, 2.35, 2.0, 3.07, 3.39, 3.32, 3.07, 2.84, 2.84, 2.84, -2.89, -2.89, -2.89, -2.73, -2.92, -2.92, -2.26, -2.26, -2.26, -2.26, -2.26, -1.73, -1.73, -1.73, -1.73, -1.73, -1.63, -1.63, -1.63, -1.73, -1.73, -1.73, -1.73, -1.73, -1.73, -1.73, -1.73, -1.73, -1.73, -1.73, -1.73, -1.73, -1.73, -1.73, -1.73, -1.73, -1.73, -1.73, -1.71, -1.81, -1.81, -1.71, -1.63, -1.12, -1.12, -1.12, -1.12, -1.12, -1.12, -1.12, -1.2, -1.12, -0.53, 0.0, 0.0, 0.0, 0.0, 0.0, 0.0, 0.0, 0.0, 0.0, 0.0, 0.0, 0.0, 0.0, 0.0, 0.0, 0.0, 0.89, 1.34, 1.34, 1.2, 1.4, 0.99, 1.49, 0.89, 1.79, 2.0, 1.9, 1.8, 1.7, 1.55, 1.6, 2.37, 3.1, 4.67, 5.46, 4.66, 3.91, 2.82, 1.84, 2.15, 1.9, 1.49, 1.2, 1.2, 1.2]}]